Wetterdaten: Mittwoch, 19.08.2009
Datum Zeit Temp. Innen Temp. Aussen UV X Diff Temp. Feuchte Inne Feuchte Auss Sonnenschein Luftdruck Regen ab 0,1 Wind Sonnenschein Windben
19.08.2009 00:04 24,2 C 17,5 C 0,0 UV-I 0,0 C 52 % 72 % 0 % 1021,4 hPa 0,0 l/m 0,0 km/h (0 Bft) 0 min 0,0 km/h (0 Bft)
19.08.2009 00:09 24,2 C 17,2 C 0,0 UV-I 0,0 C 52 % 73 % 0 % 1021,4 hPa 0,0 l/m 0,0 km/h (0 Bft) 0 min 0,0 km/h (0 Bft)
19.08.2009 00:14 24,2 C 17,1 C 0,0 UV-I 0,0 C 52 % 73 % 0 % 1021,4 hPa 0,0 l/m 0,0 km/h (0 Bft) 0 min 0,0 km/h (0 Bft)
19.08.2009 00:19 24,2 C 17,1 C 0,0 UV-I 0,0 C 52 % 73 % 0 % 1021,3 hPa 0,0 l/m 0,0 km/h (0 Bft) 0 min 0,0 km/h (0 Bft)
19.08.2009 00:24 24,2 C 16,9 C 0,0 UV-I 0,0 C 52 % 73 % 0 % 1021,3 hPa 0,0 l/m 0,0 km/h (0 Bft) 0 min 0,0 km/h (0 Bft)
19.08.2009 00:29 24,1 C 16,8 C 0,0 UV-I 0,0 C 52 % 74 % 0 % 1021,3 hPa 0,0 l/m 0,0 km/h (0 Bft) 0 min 0,0 km/h (0 Bft)
19.08.2009 00:34 24,1 C 16,8 C 0,0 UV-I 0,0 C 52 % 74 % 0 % 1021,3 hPa 0,0 l/m 0,0 km/h (0 Bft) 0 min 0,0 km/h (0 Bft)
19.08.2009 00:39 24,1 C 16,7 C 0,0 UV-I 0,0 C 52 % 75 % 0 % 1021,4 hPa 0,0 l/m 0,0 km/h (0 Bft) 0 min 0,0 km/h (0 Bft)
19.08.2009 00:44 24,0 C 16,7 C 0,0 UV-I 0,0 C 53 % 75 % 0 % 1021,4 hPa 0,0 l/m 0,0 km/h (0 Bft) 0 min 0,0 km/h (0 Bft)
19.08.2009 00:49 24,0 C 16,5 C 0,0 UV-I 0,0 C 53 % 76 % 0 % 1021,4 hPa 0,0 l/m 0,0 km/h (0 Bft) 0 min 0,0 km/h (0 Bft)
19.08.2009 00:54 24,0 C 16,4 C 0,0 UV-I 0,0 C 53 % 76 % 0 % 1021,4 hPa 0,0 l/m 0,0 km/h (0 Bft) 0 min 0,0 km/h (0 Bft)
19.08.2009 00:59 24,0 C 16,4 C 0,0 UV-I 0,0 C 53 % 77 % 0 % 1021,4 hPa 0,0 l/m 0,0 km/h (0 Bft) 0 min 0,0 km/h (0 Bft)
19.08.2009 01:04 24,0 C 16,3 C 0,0 UV-I 0,0 C 53 % 77 % 0 % 1021,4 hPa 0,0 l/m 0,0 km/h (0 Bft) 0 min 0,0 km/h (0 Bft)
19.08.2009 01:09 24,0 C 16,3 C 0,0 UV-I 0,0 C 53 % 77 % 0 % 1021,4 hPa 0,0 l/m 0,0 km/h (0 Bft) 0 min 0,0 km/h (0 Bft)
19.08.2009 01:14 23,9 C 16,2 C 0,0 UV-I 0,0 C 53 % 78 % 0 % 1021,4 hPa 0,0 l/m 0,0 km/h (0 Bft) 0 min 0,0 km/h (0 Bft)
19.08.2009 01:19 23,9 C 16,0 C 0,0 UV-I 0,0 C 53 % 78 % 0 % 1021,2 hPa 0,0 l/m 0,0 km/h (0 Bft) 0 min 0,0 km/h (0 Bft)
19.08.2009 01:24 23,8 C 16,0 C 0,0 UV-I 0,0 C 53 % 78 % 0 % 1021,2 hPa 0,0 l/m 0,0 km/h (0 Bft) 0 min 0,0 km/h (0 Bft)
19.08.2009 01:29 23,9 C 15,9 C 0,0 UV-I 0,0 C 53 % 78 % 0 % 1021,2 hPa 0,0 l/m 0,0 km/h (0 Bft) 0 min 0,0 km/h (0 Bft)
19.08.2009 01:34 23,8 C 15,8 C 0,0 UV-I 0,0 C 53 % 78 % 0 % 1021,2 hPa 0,0 l/m 0,0 km/h (0 Bft) 0 min 0,0 km/h (0 Bft)
19.08.2009 01:39 23,8 C 15,8 C 0,0 UV-I 0,0 C 53 % 79 % 0 % 1021,1 hPa 0,0 l/m 0,0 km/h (0 Bft) 0 min 0,0 km/h (0 Bft)
19.08.2009 01:44 23,8 C 15,7 C 0,0 UV-I 0,0 C 53 % 79 % 0 % 1021,1 hPa 0,0 l/m 0,0 km/h (0 Bft) 0 min 0,0 km/h (0 Bft)
19.08.2009 01:49 23,8 C 15,6 C 0,0 UV-I 0,0 C 53 % 79 % 0 % 1021,1 hPa 0,0 l/m 0,0 km/h (0 Bft) 0 min 0,0 km/h (0 Bft)
19.08.2009 01:54 23,8 C 15,6 C 0,0 UV-I 0,0 C 53 % 79 % 0 % 1021,1 hPa 0,0 l/m 0,0 km/h (0 Bft) 0 min 0,0 km/h (0 Bft)
19.08.2009 01:59 23,7 C 15,5 C 0,0 UV-I 0,0 C 53 % 79 % 0 % 1021,0 hPa 0,0 l/m 0,0 km/h (0 Bft) 0 min 0,0 km/h (0 Bft)
19.08.2009 02:04 23,7 C 15,5 C 0,0 UV-I 0,0 C 53 % 79 % 0 % 1021,0 hPa 0,0 l/m 0,0 km/h (0 Bft) 0 min 0,0 km/h (0 Bft)
19.08.2009 02:09 23,7 C 15,4 C 0,0 UV-I 0,0 C 53 % 79 % 0 % 1021,0 hPa 0,0 l/m 0,0 km/h (0 Bft) 0 min 0,0 km/h (0 Bft)
19.08.2009 02:14 23,7 C 15,5 C 0,0 UV-I 0,0 C 53 % 79 % 0 % 1021,0 hPa 0,0 l/m 0,0 km/h (0 Bft) 0 min 0,0 km/h (0 Bft)
19.08.2009 02:19 23,6 C 15,3 C 0,0 UV-I 0,0 C 53 % 79 % 0 % 1021,0 hPa 0,0 l/m 0,0 km/h (0 Bft) 0 min 0,0 km/h (0 Bft)
19.08.2009 02:24 23,6 C 15,3 C 0,0 UV-I 0,0 C 53 % 79 % 0 % 1021,0 hPa 0,0 l/m 0,0 km/h (0 Bft) 0 min 0,0 km/h (0 Bft)
19.08.2009 02:29 23,6 C 15,3 C 0,0 UV-I 0,0 C 53 % 79 % 0 % 1021,0 hPa 0,0 l/m 0,0 km/h (0 Bft) 0 min 0,0 km/h (0 Bft)
19.08.2009 02:34 23,6 C 15,2 C 0,0 UV-I 0,0 C 52 % 79 % 0 % 1021,0 hPa 0,0 l/m 0,0 km/h (0 Bft) 0 min 0,0 km/h (0 Bft)
19.08.2009 02:39 23,5 C 15,2 C 0,0 UV-I 0,0 C 52 % 79 % 0 % 1020,6 hPa 0,0 l/m 0,0 km/h (0 Bft) 0 min 0,0 km/h (0 Bft)
19.08.2009 02:44 23,5 C 15,2 C 0,0 UV-I 0,0 C 52 % 79 % 0 % 1020,6 hPa 0,0 l/m 0,0 km/h (0 Bft) 0 min 0,0 km/h (0 Bft)
19.08.2009 02:49 23,5 C 15,1 C 0,0 UV-I 0,0 C 52 % 80 % 0 % 1020,6 hPa 0,0 l/m 0,0 km/h (0 Bft) 0 min 0,0 km/h (0 Bft)
19.08.2009 02:54 23,5 C 15,0 C 0,0 UV-I 0,0 C 52 % 80 % 0 % 1020,6 hPa 0,0 l/m 0,0 km/h (0 Bft) 0 min 0,0 km/h (0 Bft)
19.08.2009 02:59 23,5 C 15,1 C 0,0 UV-I 0,0 C 52 % 80 % 0 % 1020,6 hPa 0,0 l/m 0,0 km/h (0 Bft) 0 min 0,0 km/h (0 Bft)
19.08.2009 03:04 23,4 C 15,1 C 0,0 UV-I 0,0 C 52 % 80 % 0 % 1020,6 hPa 0,0 l/m 0,0 km/h (0 Bft) 0 min 0,0 km/h (0 Bft)
19.08.2009 03:09 23,4 C 14,9 C 0,0 UV-I 0,0 C 52 % 80 % 0 % 1020,6 hPa 0,0 l/m 0,0 km/h (0 Bft) 0 min 0,0 km/h (0 Bft)
19.08.2009 03:14 23,4 C 14,9 C 0,0 UV-I 0,0 C 52 % 80 % 0 % 1020,6 hPa 0,0 l/m 0,0 km/h (0 Bft) 0 min 0,0 km/h (0 Bft)
19.08.2009 03:19 23,4 C 14,9 C 0,0 UV-I 0,0 C 52 % 80 % 0 % 1020,8 hPa 0,0 l/m 0,0 km/h (0 Bft) 0 min 0,0 km/h (0 Bft)
19.08.2009 03:24 23,4 C 14,9 C 0,0 UV-I 0,0 C 52 % 80 % 0 % 1020,8 hPa 0,0 l/m 0,0 km/h (0 Bft) 0 min 0,0 km/h (0 Bft)
19.08.2009 03:29 23,2 C 14,9 C 0,0 UV-I 0,0 C 52 % 80 % 0 % 1020,8 hPa 0,0 l/m 0,0 km/h (0 Bft) 0 min 0,0 km/h (0 Bft)
19.08.2009 03:34 23,2 C 14,9 C 0,0 UV-I 0,0 C 52 % 80 % 0 % 1020,8 hPa 0,0 l/m 0,0 km/h (0 Bft) 0 min 0,0 km/h (0 Bft)
19.08.2009 03:39 23,2 C 14,9 C 0,0 UV-I 0,0 C 52 % 80 % 0 % 1020,8 hPa 0,0 l/m 0,0 km/h (0 Bft) 0 min 0,0 km/h (0 Bft)
19.08.2009 03:44 23,2 C 14,9 C 0,0 UV-I 0,0 C 52 % 80 % 0 % 1020,8 hPa 0,0 l/m 0,7 km/h (0 Bft) 0 min 0,0 km/h (0 Bft)
19.08.2009 03:49 23,3 C 14,9 C 0,0 UV-I 0,0 C 52 % 80 % 0 % 1020,8 hPa 0,0 l/m 0,7 km/h (0 Bft) 0 min 0,0 km/h (0 Bft)
19.08.2009 03:54 23,2 C 15,1 C 0,0 UV-I 0,0 C 52 % 80 % 0 % 1020,8 hPa 0,0 l/m 0,2 km/h (0 Bft) 0 min 0,0 km/h (0 Bft)
19.08.2009 03:59 23,2 C 15,1 C 0,0 UV-I 0,0 C 52 % 80 % 0 % 1020,6 hPa 0,0 l/m 0,2 km/h (0 Bft) 0 min 0,0 km/h (0 Bft)
19.08.2009 04:04 23,2 C 15,1 C 0,0 UV-I 0,0 C 52 % 80 % 0 % 1020,6 hPa 0,0 l/m 0,5 km/h (0 Bft) 0 min 0,0 km/h (0 Bft)
19.08.2009 04:09 23,2 C 15,1 C 0,0 UV-I 0,0 C 52 % 80 % 0 % 1020,6 hPa 0,0 l/m 0,5 km/h (0 Bft) 0 min 0,0 km/h (0 Bft)
19.08.2009 04:15 23,2 C 15,2 C 0,0 UV-I 0,0 C 52 % 79 % 0 % 1020,6 hPa 0,0 l/m 0,5 km/h (0 Bft) 0 min 0,0 km/h (0 Bft)
19.08.2009 04:16 23,2 C 15,2 C 0,0 UV-I 0,0 C 52 % 79 % 0 % 1020,9 hPa 0,0 l/m 0,7 km/h (0 Bft) 0 min 0,0 km/h (0 Bft)
19.08.2009 04:18 23,2 C 15,2 C 0,0 UV-I 0,0 C 52 % 79 % 0 % 1020,9 hPa 0,0 l/m 0,7 km/h (0 Bft) 0 min 0,0 km/h (0 Bft)
19.08.2009 04:20 23,2 C 15,3 C 0,0 UV-I 0,0 C 52 % 79 % 0 % 1020,9 hPa 0,0 l/m 0,7 km/h (0 Bft) 0 min 2,6 km/h (1 Bft)
19.08.2009 04:22 23,1 C 15,3 C 0,0 UV-I 0,0 C 52 % 79 % 0 % 1020,9 hPa 0,0 l/m 1,0 km/h (0 Bft) 0 min 6,3 km/h (2 Bft)
19.08.2009 04:24 23,1 C 15,3 C 0,0 UV-I 0,0 C 52 % 79 % 0 % 1020,9 hPa 0,0 l/m 1,2 km/h (1 Bft) 0 min 4,6 km/h (1 Bft)
19.08.2009 04:26 23,1 C 15,3 C 0,0 UV-I 0,0 C 52 % 79 % 0 % 1020,9 hPa 0,0 l/m 1,2 km/h (1 Bft) 0 min 3,4 km/h (1 Bft)
19.08.2009 04:28 23,1 C 15,4 C 0,0 UV-I 0,0 C 52 % 79 % 0 % 1020,9 hPa 0,0 l/m 1,7 km/h (1 Bft) 0 min 5,1 km/h (1 Bft)
19.08.2009 04:30 23,1 C 15,5 C 0,0 UV-I 0,0 C 52 % 79 % 0 % 1020,9 hPa 0,0 l/m 1,9 km/h (1 Bft) 0 min 5,1 km/h (1 Bft)
19.08.2009 04:32 23,1 C 15,5 C 0,0 UV-I 0,0 C 52 % 79 % 0 % 1020,9 hPa 0,0 l/m 1,9 km/h (1 Bft) 0 min 2,6 km/h (1 Bft)
19.08.2009 04:34 23,1 C 15,4 C 0,0 UV-I 0,0 C 52 % 79 % 0 % 1020,9 hPa 0,0 l/m 2,2 km/h (1 Bft) 0 min 5,5 km/h (1 Bft)
19.08.2009 04:36 23,1 C 15,5 C 0,0 UV-I 0,0 C 52 % 79 % 0 % 1020,8 hPa 0,0 l/m 2,2 km/h (1 Bft) 0 min 5,5 km/h (1 Bft)
19.08.2009 04:38 23,1 C 15,5 C 0,0 UV-I 0,0 C 52 % 78 % 0 % 1020,8 hPa 0,0 l/m 3,1 km/h (1 Bft) 0 min 8,7 km/h (2 Bft)
19.08.2009 04:40 23,1 C 15,5 C 0,0 UV-I 0,1 C 52 % 78 % 0 % 1020,8 hPa 0,0 l/m 2,6 km/h (1 Bft) 0 min 8,7 km/h (2 Bft)
19.08.2009 04:42 23,1 C 15,5 C 0,0 UV-I 0,1 C 52 % 78 % 0 % 1020,8 hPa 0,0 l/m 2,9 km/h (1 Bft) 0 min 8,9 km/h (2 Bft)
19.08.2009 04:44 23,0 C 15,6 C 0,0 UV-I 0,0 C 52 % 78 % 0 % 1020,8 hPa 0,0 l/m 2,6 km/h (1 Bft) 0 min 8,9 km/h (2 Bft)
19.08.2009 04:46 23,0 C 15,6 C 0,0 UV-I 0,0 C 52 % 78 % 0 % 1020,8 hPa 0,0 l/m 2,4 km/h (1 Bft) 0 min 10,6 km/h (2 Bft)
19.08.2009 04:48 23,0 C 15,6 C 0,0 UV-I 0,0 C 52 % 78 % 0 % 1020,8 hPa 0,0 l/m 2,4 km/h (1 Bft) 0 min 10,6 km/h (2 Bft)
19.08.2009 04:50 23,0 C 15,7 C 0,0 UV-I 0,0 C 52 % 78 % 0 % 1020,8 hPa 0,0 l/m 2,4 km/h (1 Bft) 0 min 7,2 km/h (2 Bft)
19.08.2009 04:52 23,0 C 15,6 C 0,0 UV-I 0,0 C 52 % 78 % 0 % 1020,8 hPa 0,0 l/m 2,2 km/h (1 Bft) 0 min 10,6 km/h (2 Bft)
19.08.2009 04:54 23,0 C 15,6 C 0,0 UV-I 0,0 C 52 % 78 % 0 % 1020,8 hPa 0,0 l/m 1,7 km/h (1 Bft) 0 min 0,0 km/h (0 Bft)
19.08.2009 04:56 23,0 C 15,6 C 0,0 UV-I 0,0 C 52 % 78 % 0 % 1020,8 hPa 0,0 l/m 1,7 km/h (1 Bft) 0 min 0,0 km/h (0 Bft)
19.08.2009 04:58 23,0 C 15,6 C 0,0 UV-I 0,0 C 52 % 78 % 0 % 1020,8 hPa 0,0 l/m 1,0 km/h (0 Bft) 0 min 3,8 km/h (1 Bft)
19.08.2009 05:00 23,0 C 15,6 C 0,0 UV-I 0,0 C 52 % 78 % 0 % 1020,8 hPa 0,0 l/m 0,7 km/h (0 Bft) 0 min 3,8 km/h (1 Bft)
19.08.2009 05:02 23,0 C 15,6 C 0,0 UV-I 0,0 C 52 % 78 % 0 % 1020,8 hPa 0,0 l/m 0,5 km/h (0 Bft) 0 min 0,0 km/h (0 Bft)
19.08.2009 05:04 23,0 C 15,6 C 0,0 UV-I 0,0 C 52 % 78 % 0 % 1020,8 hPa 0,0 l/m 0,7 km/h (0 Bft) 0 min 2,4 km/h (1 Bft)
19.08.2009 05:06 23,0 C 15,7 C 0,0 UV-I 0,0 C 52 % 78 % 0 % 1020,8 hPa 0,0 l/m 1,0 km/h (0 Bft) 0 min 2,9 km/h (1 Bft)
19.08.2009 05:08 23,0 C 15,7 C 0,0 UV-I 0,0 C 52 % 78 % 0 % 1020,8 hPa 0,0 l/m 1,0 km/h (0 Bft) 0 min 2,9 km/h (1 Bft)
19.08.2009 05:10 23,0 C 15,6 C 0,0 UV-I 0,0 C 52 % 78 % 0 % 1020,8 hPa 0,0 l/m 0,7 km/h (0 Bft) 0 min 0,0 km/h (0 Bft)
19.08.2009 05:12 23,0 C 15,6 C 0,0 UV-I 0,0 C 52 % 78 % 0 % 1020,8 hPa 0,0 l/m 0,5 km/h (0 Bft) 0 min 0,0 km/h (0 Bft)
19.08.2009 05:14 23,0 C 15,6 C 0,0 UV-I 0,0 C 52 % 78 % 0 % 1020,8 hPa 0,0 l/m 0,5 km/h (0 Bft) 0 min 0,0 km/h (0 Bft)
19.08.2009 05:16 22,9 C 15,6 C 0,0 UV-I 0,0 C 52 % 78 % 0 % 1020,8 hPa 0,0 l/m 0,2 km/h (0 Bft) 0 min 0,0 km/h (0 Bft)
19.08.2009 05:18 23,0 C 15,6 C 0,0 UV-I 0,0 C 52 % 78 % 0 % 1020,8 hPa 0,0 l/m 0,2 km/h (0 Bft) 0 min 0,0 km/h (0 Bft)
19.08.2009 05:20 23,0 C 15,6 C 0,0 UV-I 0,0 C 52 % 78 % 0 % 1020,8 hPa 0,0 l/m 0,2 km/h (0 Bft) 0 min 0,0 km/h (0 Bft)
19.08.2009 05:22 23,0 C 15,6 C 0,0 UV-I 0,0 C 52 % 78 % 0 % 1020,8 hPa 0,0 l/m 0,2 km/h (0 Bft) 0 min 0,0 km/h (0 Bft)
19.08.2009 05:24 22,9 C 15,6 C 0,0 UV-I 0,0 C 52 % 78 % 0 % 1020,8 hPa 0,0 l/m 0,5 km/h (0 Bft) 0 min 0,0 km/h (0 Bft)
19.08.2009 05:26 22,9 C 15,6 C 0,0 UV-I 0,0 C 52 % 78 % 0 % 1020,8 hPa 0,0 l/m 0,2 km/h (0 Bft) 0 min 0,0 km/h (0 Bft)
19.08.2009 05:28 22,9 C 15,6 C 0,0 UV-I 0,0 C 52 % 78 % 0 % 1020,8 hPa 0,0 l/m 0,2 km/h (0 Bft) 0 min 0,0 km/h (0 Bft)
19.08.2009 05:30 23,0 C 15,7 C 0,0 UV-I 0,0 C 52 % 78 % 0 % 1020,8 hPa 0,0 l/m 0,2 km/h (0 Bft) 0 min 0,0 km/h (0 Bft)
19.08.2009 05:32 22,9 C 15,7 C 0,0 UV-I 0,0 C 52 % 78 % 0 % 1020,8 hPa 0,0 l/m 0,2 km/h (0 Bft) 0 min 0,0 km/h (0 Bft)
19.08.2009 05:34 22,9 C 15,6 C 0,0 UV-I 0,0 C 52 % 78 % 0 % 1020,8 hPa 0,0 l/m 0,0 km/h (0 Bft) 0 min 0,0 km/h (0 Bft)
19.08.2009 05:36 22,9 C 15,6 C 0,0 UV-I 0,0 C 52 % 78 % 0 % 1020,8 hPa 0,0 l/m 0,0 km/h (0 Bft) 0 min 0,0 km/h (0 Bft)
19.08.2009 05:38 22,9 C 15,6 C 0,0 UV-I 0,0 C 52 % 78 % 0 % 1020,8 hPa 0,0 l/m 0,0 km/h (0 Bft) 0 min 0,0 km/h (0 Bft)
19.08.2009 05:40 22,9 C 15,6 C 0,0 UV-I 0,0 C 52 % 78 % 0 % 1020,8 hPa 0,0 l/m 0,0 km/h (0 Bft) 0 min 0,0 km/h (0 Bft)
19.08.2009 05:42 22,9 C 15,5 C 0,0 UV-I 0,0 C 52 % 78 % 0 % 1020,8 hPa 0,0 l/m 0,0 km/h (0 Bft) 0 min 0,0 km/h (0 Bft)
19.08.2009 05:44 22,9 C 15,5 C 0,0 UV-I 0,0 C 52 % 78 % 0 % 1020,8 hPa 0,0 l/m 0,0 km/h (0 Bft) 0 min 0,0 km/h (0 Bft)
19.08.2009 05:46 22,9 C 15,5 C 0,0 UV-I 0,0 C 52 % 78 % 0 % 1020,8 hPa 0,0 l/m 0,0 km/h (0 Bft) 0 min 0,0 km/h (0 Bft)
19.08.2009 05:48 22,9 C 15,5 C 0,0 UV-I 0,0 C 52 % 79 % 0 % 1020,8 hPa 0,0 l/m 0,0 km/h (0 Bft) 0 min 0,0 km/h (0 Bft)
19.08.2009 05:50 22,9 C 15,4 C 0,0 UV-I 0,0 C 52 % 79 % 0 % 1020,8 hPa 0,0 l/m 0,0 km/h (0 Bft) 0 min 0,0 km/h (0 Bft)
19.08.2009 05:52 22,9 C 15,4 C 0,0 UV-I 0,0 C 52 % 79 % 0 % 1020,8 hPa 0,0 l/m 0,0 km/h (0 Bft) 0 min 0,0 km/h (0 Bft)
19.08.2009 05:54 22,9 C 15,5 C 0,0 UV-I 0,0 C 52 % 79 % 0 % 1020,8 hPa 0,0 l/m 0,0 km/h (0 Bft) 0 min 0,0 km/h (0 Bft)
19.08.2009 05:56 22,9 C 15,5 C 0,0 UV-I 0,0 C 53 % 79 % 0 % 1020,9 hPa 0,0 l/m 0,0 km/h (0 Bft) 0 min 0,0 km/h (0 Bft)
19.08.2009 05:58 22,9 C 15,4 C 0,0 UV-I 0,0 C 53 % 79 % 0 % 1020,9 hPa 0,0 l/m 0,0 km/h (0 Bft) 0 min 0,0 km/h (0 Bft)
19.08.2009 06:00 22,9 C 15,3 C 0,0 UV-I 0,0 C 53 % 79 % 0 % 1020,9 hPa 0,0 l/m 0,0 km/h (0 Bft) 0 min 0,0 km/h (0 Bft)
19.08.2009 06:02 22,9 C 15,3 C 0,0 UV-I 0,0 C 53 % 79 % 0 % 1020,9 hPa 0,0 l/m 0,0 km/h (0 Bft) 0 min 0,0 km/h (0 Bft)
19.08.2009 06:04 22,9 C 15,3 C 0,0 UV-I 0,0 C 53 % 79 % 0 % 1020,9 hPa 0,0 l/m 0,0 km/h (0 Bft) 0 min 0,0 km/h (0 Bft)
19.08.2009 06:06 22,9 C 15,3 C 0,0 UV-I 0,0 C 53 % 79 % 0 % 1020,9 hPa 0,0 l/m 0,0 km/h (0 Bft) 0 min 0,0 km/h (0 Bft)
19.08.2009 06:08 22,9 C 15,2 C 0,0 UV-I 0,0 C 53 % 79 % 0 % 1020,9 hPa 0,0 l/m 0,0 km/h (0 Bft) 0 min 0,0 km/h (0 Bft)
19.08.2009 06:10 22,9 C 15,2 C 0,0 UV-I 0,0 C 53 % 79 % 0 % 1020,9 hPa 0,0 l/m 0,0 km/h (0 Bft) 0 min 0,0 km/h (0 Bft)
19.08.2009 06:12 22,9 C 15,2 C 0,0 UV-I 0,0 C 53 % 80 % 0 % 1020,9 hPa 0,0 l/m 0,0 km/h (0 Bft) 0 min 0,0 km/h (0 Bft)
19.08.2009 06:14 22,9 C 15,2 C 0,0 UV-I 0,0 C 53 % 80 % 0 % 1020,9 hPa 0,0 l/m 0,0 km/h (0 Bft) 0 min 0,0 km/h (0 Bft)
19.08.2009 06:16 22,9 C 15,2 C 0,0 UV-I 0,0 C 53 % 80 % 0 % 1020,9 hPa 0,0 l/m 0,0 km/h (0 Bft) 0 min 0,0 km/h (0 Bft)
19.08.2009 06:18 22,9 C 15,1 C 0,0 UV-I 0,0 C 53 % 80 % 0 % 1020,9 hPa 0,0 l/m 0,0 km/h (0 Bft) 0 min 0,0 km/h (0 Bft)
19.08.2009 06:20 22,8 C 15,1 C 0,0 UV-I 0,0 C 53 % 80 % 0 % 1020,9 hPa 0,0 l/m 0,0 km/h (0 Bft) 0 min 0,0 km/h (0 Bft)
19.08.2009 06:22 22,9 C 15,1 C 0,0 UV-I 0,0 C 53 % 80 % 0 % 1020,9 hPa 0,0 l/m 0,0 km/h (0 Bft) 0 min 0,0 km/h (0 Bft)
19.08.2009 06:24 22,8 C 15,0 C 0,0 UV-I 0,0 C 53 % 80 % 0 % 1020,9 hPa 0,0 l/m 0,0 km/h (0 Bft) 0 min 0,0 km/h (0 Bft)
19.08.2009 06:26 22,8 C 15,1 C 0,0 UV-I 0,0 C 53 % 80 % 0 % 1020,9 hPa 0,0 l/m 0,0 km/h (0 Bft) 0 min 0,0 km/h (0 Bft)
19.08.2009 06:28 22,8 C 15,1 C 0,0 UV-I 0,0 C 53 % 80 % 0 % 1020,9 hPa 0,0 l/m 0,0 km/h (0 Bft) 0 min 0,0 km/h (0 Bft)
19.08.2009 06:30 22,8 C 15,1 C 0,0 UV-I 0,0 C 53 % 80 % 0 % 1020,9 hPa 0,0 l/m 0,0 km/h (0 Bft) 0 min 0,0 km/h (0 Bft)
19.08.2009 06:32 22,8 C 15,0 C 0,0 UV-I 0,0 C 53 % 80 % 0 % 1020,9 hPa 0,0 l/m 0,0 km/h (0 Bft) 0 min 0,0 km/h (0 Bft)
19.08.2009 06:34 22,8 C 15,0 C 0,0 UV-I 0,0 C 53 % 80 % 0 % 1020,9 hPa 0,0 l/m 0,0 km/h (0 Bft) 0 min 0,0 km/h (0 Bft)
19.08.2009 06:36 22,8 C 14,9 C 0,0 UV-I 0,0 C 53 % 80 % 0 % 1020,8 hPa 0,0 l/m 0,0 km/h (0 Bft) 0 min 0,0 km/h (0 Bft)
19.08.2009 06:38 22,8 C 14,9 C 0,0 UV-I 0,0 C 53 % 80 % 0 % 1020,8 hPa 0,0 l/m 0,0 km/h (0 Bft) 0 min 0,0 km/h (0 Bft)
19.08.2009 06:40 22,8 C 14,8 C 0,0 UV-I 0,0 C 53 % 81 % 0 % 1020,8 hPa 0,0 l/m 0,0 km/h (0 Bft) 0 min 0,0 km/h (0 Bft)
19.08.2009 06:42 22,8 C 14,8 C 0,0 UV-I 0,0 C 53 % 81 % 0 % 1020,8 hPa 0,0 l/m 0,0 km/h (0 Bft) 0 min 0,0 km/h (0 Bft)
19.08.2009 06:44 22,8 C 14,8 C 0,0 UV-I 0,0 C 53 % 81 % 0 % 1020,8 hPa 0,0 l/m 0,0 km/h (0 Bft) 0 min 0,0 km/h (0 Bft)
19.08.2009 06:46 22,8 C 14,8 C 0,0 UV-I 0,0 C 53 % 81 % 0 % 1020,8 hPa 0,0 l/m 0,0 km/h (0 Bft) 0 min 0,0 km/h (0 Bft)
19.08.2009 06:48 22,8 C 14,8 C 0,1 UV-I 0,0 C 53 % 81 % 0 % 1020,8 hPa 0,0 l/m 0,0 km/h (0 Bft) 0 min 0,0 km/h (0 Bft)
19.08.2009 06:50 22,8 C 14,8 C 0,1 UV-I 0,0 C 53 % 81 % 0 % 1020,8 hPa 0,0 l/m 0,0 km/h (0 Bft) 0 min 0,0 km/h (0 Bft)
19.08.2009 06:52 22,8 C 14,8 C 0,1 UV-I 0,0 C 53 % 81 % 0 % 1020,8 hPa 0,0 l/m 0,0 km/h (0 Bft) 0 min 0,0 km/h (0 Bft)
19.08.2009 06:54 22,8 C 14,8 C 0,1 UV-I 0,0 C 53 % 81 % 0 % 1020,8 hPa 0,0 l/m 0,0 km/h (0 Bft) 0 min 0,0 km/h (0 Bft)
19.08.2009 06:56 22,8 C 14,7 C 0,1 UV-I 0,0 C 53 % 81 % 0 % 1020,8 hPa 0,0 l/m 0,0 km/h (0 Bft) 0 min 0,0 km/h (0 Bft)
19.08.2009 06:58 22,8 C 14,7 C 0,2 UV-I 0,0 C 53 % 82 % 0 % 1020,8 hPa 0,0 l/m 0,0 km/h (0 Bft) 0 min 0,0 km/h (0 Bft)
19.08.2009 07:00 22,8 C 14,7 C 0,2 UV-I 0,0 C 53 % 82 % 0 % 1020,8 hPa 0,0 l/m 0,0 km/h (0 Bft) 0 min 0,0 km/h (0 Bft)
19.08.2009 07:02 22,8 C 14,7 C 0,2 UV-I 0,0 C 53 % 82 % 0 % 1020,8 hPa 0,0 l/m 0,0 km/h (0 Bft) 0 min 0,0 km/h (0 Bft)
19.08.2009 07:04 22,8 C 14,7 C 0,2 UV-I 0,0 C 53 % 82 % 0 % 1020,8 hPa 0,0 l/m 0,0 km/h (0 Bft) 0 min 0,0 km/h (0 Bft)
19.08.2009 07:06 22,8 C 14,7 C 0,2 UV-I 0,0 C 53 % 82 % 0 % 1020,8 hPa 0,0 l/m 0,0 km/h (0 Bft) 0 min 0,0 km/h (0 Bft)
19.08.2009 07:08 22,8 C 14,7 C 0,2 UV-I 0,0 C 53 % 82 % 0 % 1020,8 hPa 0,0 l/m 0,0 km/h (0 Bft) 0 min 0,0 km/h (0 Bft)
19.08.2009 07:10 22,8 C 14,7 C 0,2 UV-I 0,0 C 53 % 82 % 0 % 1020,8 hPa 0,0 l/m 0,0 km/h (0 Bft) 0 min 0,0 km/h (0 Bft)
19.08.2009 07:12 22,8 C 14,6 C 0,2 UV-I 0,0 C 53 % 82 % 0 % 1020,8 hPa 0,0 l/m 0,0 km/h (0 Bft) 0 min 0,0 km/h (0 Bft)
19.08.2009 07:14 22,8 C 14,6 C 0,2 UV-I 0,0 C 54 % 82 % 0 % 1020,8 hPa 0,0 l/m 0,0 km/h (0 Bft) 0 min 0,0 km/h (0 Bft)
19.08.2009 07:16 22,8 C 14,6 C 0,2 UV-I 0,0 C 53 % 82 % 0 % 1020,9 hPa 0,0 l/m 0,0 km/h (0 Bft) 0 min 0,0 km/h (0 Bft)
19.08.2009 07:20 22,8 C 14,6 C 0,3 UV-I 0,0 C 53 % 82 % 0 % 1020,9 hPa 0,0 l/m 0,0 km/h (0 Bft) 0 min 0,0 km/h (0 Bft)
19.08.2009 07:22 22,8 C 14,6 C 0,4 UV-I 0,0 C 54 % 82 % 0 % 1020,9 hPa 0,0 l/m 0,0 km/h (0 Bft) 0 min 0,0 km/h (0 Bft)
19.08.2009 07:24 22,8 C 14,6 C 0,4 UV-I 0,0 C 54 % 83 % 0 % 1020,9 hPa 0,0 l/m 0,0 km/h (0 Bft) 0 min 0,0 km/h (0 Bft)
19.08.2009 07:26 22,8 C 14,6 C 0,4 UV-I 0,0 C 54 % 83 % 0 % 1020,9 hPa 0,0 l/m 0,0 km/h (0 Bft) 0 min 0,0 km/h (0 Bft)
19.08.2009 07:28 22,8 C 14,7 C 0,3 UV-I 0,0 C 54 % 83 % 0 % 1020,9 hPa 0,0 l/m 0,0 km/h (0 Bft) 0 min 0,0 km/h (0 Bft)
19.08.2009 07:30 22,8 C 14,7 C 0,3 UV-I 0,0 C 54 % 83 % 0 % 1020,9 hPa 0,0 l/m 0,0 km/h (0 Bft) 0 min 0,0 km/h (0 Bft)
19.08.2009 07:34 22,8 C 14,7 C 0,4 UV-I 0,0 C 54 % 83 % 0 % 1020,9 hPa 0,0 l/m 0,0 km/h (0 Bft) 0 min 0,0 km/h (0 Bft)
19.08.2009 07:36 22,8 C 14,7 C 0,4 UV-I 0,0 C 54 % 83 % 0 % 1020,7 hPa 0,0 l/m 0,0 km/h (0 Bft) 0 min 0,0 km/h (0 Bft)
19.08.2009 07:38 22,8 C 14,8 C 0,5 UV-I 0,0 C 54 % 83 % 0 % 1020,7 hPa 0,0 l/m 0,0 km/h (0 Bft) 0 min 0,0 km/h (0 Bft)
19.08.2009 07:40 22,8 C 14,8 C 0,5 UV-I 0,1 C 54 % 83 % 3 % 1020,7 hPa 0,0 l/m 0,0 km/h (0 Bft) 0 min 0,0 km/h (0 Bft)
19.08.2009 07:42 22,8 C 14,9 C 0,6 UV-I 0,0 C 54 % 83 % 0 % 1020,7 hPa 0,0 l/m 0,0 km/h (0 Bft) 0 min 0,0 km/h (0 Bft)
19.08.2009 07:44 22,8 C 14,8 C 0,6 UV-I 0,2 C 54 % 83 % 6 % 1020,7 hPa 0,0 l/m 0,0 km/h (0 Bft) 0 min 0,0 km/h (0 Bft)
19.08.2009 07:46 22,8 C 14,8 C 0,6 UV-I 0,2 C 54 % 83 % 6 % 1020,7 hPa 0,0 l/m 0,0 km/h (0 Bft) 0 min 0,0 km/h (0 Bft)
19.08.2009 07:48 22,8 C 14,9 C 0,6 UV-I 0,2 C 54 % 83 % 6 % 1020,7 hPa 0,0 l/m 0,0 km/h (0 Bft) 0 min 0,0 km/h (0 Bft)
19.08.2009 07:50 22,8 C 14,9 C 0,6 UV-I 0,3 C 54 % 83 % 9 % 1020,7 hPa 0,0 l/m 0,0 km/h (0 Bft) 0 min 0,0 km/h (0 Bft)
19.08.2009 07:52 22,8 C 15,0 C 0,6 UV-I 0,2 C 54 % 83 % 6 % 1020,7 hPa 0,0 l/m 0,2 km/h (0 Bft) 0 min 2,6 km/h (1 Bft)
19.08.2009 07:56 22,8 C 15,1 C 0,6 UV-I 0,3 C 54 % 83 % 9 % 1020,8 hPa 0,0 l/m 0,2 km/h (0 Bft) 0 min 4,1 km/h (1 Bft)
19.08.2009 07:58 22,8 C 15,1 C 0,7 UV-I 0,4 C 54 % 83 % 11 % 1020,8 hPa 0,0 l/m 0,5 km/h (0 Bft) 0 min 4,1 km/h (1 Bft)
19.08.2009 08:00 22,8 C 15,2 C 0,7 UV-I 0,4 C 54 % 83 % 11 % 1020,8 hPa 0,0 l/m 0,5 km/h (0 Bft) 0 min 0,0 km/h (0 Bft)
19.08.2009 08:02 22,8 C 15,2 C 0,7 UV-I 0,4 C 54 % 83 % 11 % 1020,8 hPa 0,0 l/m 0,5 km/h (0 Bft) 0 min 0,0 km/h (0 Bft)
19.08.2009 08:04 22,8 C 15,2 C 0,7 UV-I 0,5 C 54 % 83 % 14 % 1020,8 hPa 0,0 l/m 0,5 km/h (0 Bft) 0 min 0,0 km/h (0 Bft)
19.08.2009 08:06 22,8 C 15,2 C 0,7 UV-I 0,6 C 54 % 83 % 17 % 1020,8 hPa 0,0 l/m 0,2 km/h (0 Bft) 0 min 0,0 km/h (0 Bft)
19.08.2009 08:08 22,8 C 15,2 C 0,8 UV-I 0,7 C 54 % 83 % 20 % 1020,8 hPa 0,0 l/m 0,2 km/h (0 Bft) 0 min 0,0 km/h (0 Bft)
19.08.2009 08:10 22,8 C 15,3 C 0,8 UV-I 0,7 C 54 % 83 % 20 % 1020,8 hPa 0,0 l/m 0,2 km/h (0 Bft) 0 min 0,0 km/h (0 Bft)
19.08.2009 08:14 22,8 C 15,5 C 0,9 UV-I 0,8 C 54 % 83 % 23 % 1020,8 hPa 0,0 l/m 0,2 km/h (0 Bft) 0 min 0,0 km/h (0 Bft)
19.08.2009 08:16 22,8 C 15,5 C 0,9 UV-I 0,8 C 54 % 83 % 23 % 1020,8 hPa 0,0 l/m 0,2 km/h (0 Bft) 0 min 0,0 km/h (0 Bft)
19.08.2009 08:20 22,8 C 15,6 C 0,9 UV-I 1,0 C 54 % 83 % 29 % 1020,8 hPa 0,0 l/m 0,7 km/h (0 Bft) 0 min 4,3 km/h (1 Bft)
19.08.2009 08:22 22,8 C 15,7 C 1,0 UV-I 1,0 C 54 % 83 % 29 % 1020,8 hPa 0,0 l/m 0,7 km/h (0 Bft) 0 min 2,4 km/h (1 Bft)
19.08.2009 08:24 22,8 C 15,7 C 1,0 UV-I 1,2 C 54 % 83 % 34 % 1020,8 hPa 0,0 l/m 1,0 km/h (0 Bft) 0 min 2,4 km/h (1 Bft)
19.08.2009 08:26 22,8 C 15,9 C 1,0 UV-I 1,0 C 54 % 82 % 29 % 1020,8 hPa 0,0 l/m 1,2 km/h (1 Bft) 0 min 3,4 km/h (1 Bft)
19.08.2009 08:28 22,8 C 15,9 C 1,1 UV-I 1,1 C 54 % 82 % 31 % 1020,8 hPa 0,0 l/m 1,4 km/h (1 Bft) 0 min 3,4 km/h (1 Bft)
19.08.2009 08:30 22,8 C 16,0 C 1,1 UV-I 1,1 C 54 % 82 % 31 % 1020,8 hPa 0,0 l/m 1,2 km/h (1 Bft) 0 min 3,4 km/h (1 Bft)
19.08.2009 08:32 22,8 C 16,1 C 1,2 UV-I 1,1 C 54 % 81 % 31 % 1020,8 hPa 0,0 l/m 1,2 km/h (1 Bft) 0 min 2,4 km/h (1 Bft)
19.08.2009 08:34 22,8 C 16,2 C 1,2 UV-I 1,1 C 54 % 81 % 31 % 1020,8 hPa 0,0 l/m 1,2 km/h (1 Bft) 0 min 3,4 km/h (1 Bft)
19.08.2009 08:36 22,8 C 16,2 C 1,2 UV-I 1,3 C 54 % 81 % 37 % 1021,1 hPa 0,0 l/m 1,7 km/h (1 Bft) 0 min 5,3 km/h (1 Bft)
19.08.2009 08:38 22,9 C 16,3 C 1,2 UV-I 1,2 C 54 % 81 % 34 % 1021,1 hPa 0,0 l/m 1,7 km/h (1 Bft) 0 min 5,3 km/h (1 Bft)
19.08.2009 08:40 22,8 C 16,3 C 1,2 UV-I 1,3 C 54 % 81 % 37 % 1021,1 hPa 0,0 l/m 1,4 km/h (1 Bft) 0 min 8,9 km/h (2 Bft)
19.08.2009 08:42 22,9 C 16,4 C 1,2 UV-I 1,3 C 54 % 81 % 37 % 1021,1 hPa 0,0 l/m 1,9 km/h (1 Bft) 0 min 8,9 km/h (2 Bft)
19.08.2009 08:44 22,9 C 16,5 C 1,2 UV-I 1,3 C 54 % 81 % 37 % 1021,1 hPa 0,0 l/m 2,4 km/h (1 Bft) 0 min 3,8 km/h (1 Bft)
19.08.2009 08:46 22,9 C 16,6 C 1,2 UV-I 1,3 C 54 % 81 % 37 % 1021,1 hPa 0,0 l/m 2,4 km/h (1 Bft) 0 min 6,0 km/h (2 Bft)
19.08.2009 08:48 22,9 C 16,7 C 1,1 UV-I 1,3 C 54 % 81 % 37 % 1021,1 hPa 0,0 l/m 2,4 km/h (1 Bft) 0 min 6,0 km/h (2 Bft)
19.08.2009 08:50 22,9 C 16,7 C 1,1 UV-I 1,4 C 54 % 80 % 40 % 1021,1 hPa 0,0 l/m 3,1 km/h (1 Bft) 0 min 6,0 km/h (2 Bft)
19.08.2009 08:52 22,9 C 16,8 C 1,3 UV-I 1,4 C 54 % 80 % 40 % 1021,1 hPa 0,0 l/m 3,6 km/h (1 Bft) 0 min 13,5 km/h (3 Bft)
19.08.2009 08:54 22,9 C 16,9 C 1,3 UV-I 1,3 C 54 % 80 % 37 % 1021,1 hPa 0,0 l/m 3,6 km/h (1 Bft) 0 min 3,8 km/h (1 Bft)
19.08.2009 08:56 22,9 C 17,1 C 1,3 UV-I 1,3 C 54 % 80 % 37 % 1021,0 hPa 0,0 l/m 3,8 km/h (1 Bft) 0 min 3,8 km/h (1 Bft)
19.08.2009 08:58 22,9 C 17,1 C 1,4 UV-I 1,3 C 54 % 80 % 37 % 1021,0 hPa 0,0 l/m 3,1 km/h (1 Bft) 0 min 0,0 km/h (0 Bft)
19.08.2009 09:00 22,9 C 17,2 C 1,4 UV-I 1,3 C 54 % 79 % 37 % 1021,0 hPa 0,0 l/m 3,1 km/h (1 Bft) 0 min 4,1 km/h (1 Bft)
19.08.2009 09:02 22,9 C 17,2 C 1,4 UV-I 1,4 C 54 % 79 % 40 % 1021,0 hPa 0,0 l/m 2,4 km/h (1 Bft) 0 min 6,3 km/h (2 Bft)
19.08.2009 09:04 22,9 C 17,3 C 1,4 UV-I 1,4 C 54 % 79 % 40 % 1021,0 hPa 0,0 l/m 2,2 km/h (1 Bft) 0 min 6,3 km/h (2 Bft)
19.08.2009 09:06 22,9 C 17,5 C 1,4 UV-I 1,3 C 54 % 78 % 37 % 1021,0 hPa 0,0 l/m 2,9 km/h (1 Bft) 0 min 9,4 km/h (2 Bft)
19.08.2009 09:08 22,9 C 17,5 C 1,5 UV-I 1,4 C 54 % 78 % 40 % 1021,0 hPa 0,0 l/m 3,1 km/h (1 Bft) 0 min 9,4 km/h (2 Bft)
19.08.2009 09:10 22,9 C 17,6 C 1,5 UV-I 1,3 C 55 % 78 % 37 % 1021,0 hPa 0,0 l/m 2,9 km/h (1 Bft) 0 min 5,3 km/h (1 Bft)
19.08.2009 09:12 22,9 C 17,7 C 1,5 UV-I 1,3 C 55 % 78 % 37 % 1021,0 hPa 0,0 l/m 2,6 km/h (1 Bft) 0 min 0,0 km/h (0 Bft)
19.08.2009 09:14 22,9 C 17,6 C 1,5 UV-I 1,5 C 55 % 78 % 43 % 1021,0 hPa 0,0 l/m 2,9 km/h (1 Bft) 0 min 10,1 km/h (2 Bft)
19.08.2009 09:16 22,9 C 17,9 C 1,5 UV-I 1,3 C 55 % 78 % 37 % 1021,0 hPa 0,0 l/m 2,9 km/h (1 Bft) 0 min 10,1 km/h (2 Bft)
19.08.2009 09:18 22,9 C 17,9 C 1,5 UV-I 1,4 C 55 % 77 % 40 % 1021,0 hPa 0,0 l/m 2,2 km/h (1 Bft) 0 min 0,0 km/h (0 Bft)
19.08.2009 09:20 22,9 C 18,0 C 1,5 UV-I 1,3 C 55 % 77 % 37 % 1021,0 hPa 0,0 l/m 1,9 km/h (1 Bft) 0 min 2,4 km/h (1 Bft)
19.08.2009 09:22 22,9 C 18,1 C 1,6 UV-I 1,3 C 55 % 77 % 37 % 1021,0 hPa 0,0 l/m 2,6 km/h (1 Bft) 0 min 8,9 km/h (2 Bft)
19.08.2009 09:24 22,9 C 18,1 C 1,6 UV-I 1,4 C 55 % 77 % 40 % 1021,0 hPa 0,0 l/m 2,6 km/h (1 Bft) 0 min 8,9 km/h (2 Bft)
19.08.2009 09:26 23,0 C 18,3 C 1,6 UV-I 1,3 C 55 % 77 % 37 % 1021,0 hPa 0,0 l/m 2,6 km/h (1 Bft) 0 min 12,5 km/h (3 Bft)
19.08.2009 09:28 23,0 C 18,3 C 1,6 UV-I 1,3 C 55 % 76 % 37 % 1021,0 hPa 0,0 l/m 3,1 km/h (1 Bft) 0 min 12,5 km/h (3 Bft)
19.08.2009 09:30 23,0 C 18,3 C 1,6 UV-I 1,4 C 55 % 76 % 40 % 1021,0 hPa 0,0 l/m 3,8 km/h (1 Bft) 0 min 7,0 km/h (2 Bft)
19.08.2009 09:32 23,0 C 18,4 C 1,7 UV-I 1,4 C 55 % 76 % 40 % 1021,0 hPa 0,0 l/m 4,1 km/h (1 Bft) 0 min 7,2 km/h (2 Bft)
19.08.2009 09:34 23,0 C 18,5 C 1,7 UV-I 1,4 C 55 % 76 % 40 % 1021,0 hPa 0,0 l/m 4,3 km/h (1 Bft) 0 min 13,2 km/h (3 Bft)
19.08.2009 09:36 23,0 C 18,7 C 1,7 UV-I 1,4 C 55 % 76 % 40 % 1021,3 hPa 0,0 l/m 3,8 km/h (1 Bft) 0 min 13,2 km/h (3 Bft)
19.08.2009 09:38 23,0 C 18,7 C 1,8 UV-I 1,4 C 55 % 76 % 40 % 1021,3 hPa 0,0 l/m 2,9 km/h (1 Bft) 0 min 3,6 km/h (1 Bft)
19.08.2009 09:40 23,0 C 18,8 C 1,8 UV-I 1,5 C 55 % 75 % 43 % 1021,3 hPa 0,0 l/m 3,1 km/h (1 Bft) 0 min 6,0 km/h (2 Bft)
19.08.2009 09:42 23,0 C 18,8 C 1,9 UV-I 1,6 C 55 % 75 % 46 % 1021,3 hPa 0,0 l/m 2,4 km/h (1 Bft) 0 min 6,0 km/h (2 Bft)
19.08.2009 09:48 23,0 C 19,0 C 1,9 UV-I 1,7 C 55 % 75 % 49 % 1021,3 hPa 0,0 l/m 1,7 km/h (1 Bft) 0 min 4,3 km/h (1 Bft)
19.08.2009 09:50 23,0 C 19,2 C 1,9 UV-I 1,7 C 55 % 75 % 49 % 1021,3 hPa 0,0 l/m 1,7 km/h (1 Bft) 0 min 3,1 km/h (1 Bft)
19.08.2009 09:54 23,0 C 19,3 C 1,8 UV-I 3,6 C 55 % 74 % 100 % 1021,3 hPa 0,0 l/m 1,9 km/h (1 Bft) 2 min 6,5 km/h (2 Bft)
19.08.2009 09:56 23,1 C 19,5 C 1,8 UV-I 4,3 C 55 % 74 % 100 % 1020,9 hPa 0,0 l/m 1,9 km/h (1 Bft) 2 min 5,5 km/h (1 Bft)
19.08.2009 09:58 23,1 C 19,6 C 2,1 UV-I 5,2 C 55 % 73 % 100 % 1020,9 hPa 0,0 l/m 2,4 km/h (1 Bft) 2 min 5,5 km/h (1 Bft)
19.08.2009 10:00 23,1 C 19,6 C 2,1 UV-I 5,5 C 55 % 73 % 100 % 1020,9 hPa 0,0 l/m 3,4 km/h (1 Bft) 2 min 9,6 km/h (2 Bft)
19.08.2009 10:02 23,1 C 19,7 C 2,1 UV-I 5,8 C 55 % 73 % 100 % 1020,9 hPa 0,0 l/m 4,3 km/h (1 Bft) 2 min 9,6 km/h (2 Bft)
19.08.2009 10:04 23,1 C 19,9 C 2,1 UV-I 5,8 C 55 % 73 % 100 % 1020,9 hPa 0,0 l/m 4,6 km/h (1 Bft) 2 min 7,2 km/h (2 Bft)
19.08.2009 10:08 23,1 C 20,1 C 2,1 UV-I 6,5 C 55 % 73 % 100 % 1020,9 hPa 0,0 l/m 3,8 km/h (1 Bft) 2 min 7,2 km/h (2 Bft)
19.08.2009 10:10 23,1 C 20,2 C 2,1 UV-I 7,1 C 55 % 72 % 100 % 1020,9 hPa 0,0 l/m 2,6 km/h (1 Bft) 2 min 2,4 km/h (1 Bft)
19.08.2009 10:12 23,2 C 20,3 C 2,1 UV-I 7,4 C 55 % 73 % 100 % 1020,9 hPa 0,0 l/m 2,4 km/h (1 Bft) 2 min 4,1 km/h (1 Bft)
19.08.2009 10:14 23,2 C 20,5 C 2,1 UV-I 7,3 C 55 % 72 % 100 % 1020,9 hPa 0,0 l/m 2,4 km/h (1 Bft) 2 min 9,1 km/h (2 Bft)
19.08.2009 10:16 23,2 C 20,7 C 2,1 UV-I 7,0 C 55 % 71 % 100 % 1021,1 hPa 0,0 l/m 2,6 km/h (1 Bft) 2 min 9,1 km/h (2 Bft)
19.08.2009 10:18 23,2 C 20,9 C 7,9 UV-I 6,9 C 55 % 70 % 100 % 1021,1 hPa 0,0 l/m 2,9 km/h (1 Bft) 2 min 10,3 km/h (2 Bft)
19.08.2009 10:20 23,2 C 21,1 C 7,9 UV-I 6,8 C 55 % 70 % 100 % 1021,1 hPa 0,0 l/m 3,4 km/h (1 Bft) 2 min 10,3 km/h (2 Bft)
19.08.2009 10:22 23,2 C 21,2 C 7,9 UV-I 6,9 C 55 % 70 % 100 % 1021,1 hPa 0,0 l/m 3,1 km/h (1 Bft) 2 min 0,0 km/h (0 Bft)
19.08.2009 10:24 23,2 C 21,4 C 7,9 UV-I 7,2 C 55 % 70 % 100 % 1021,1 hPa 0,0 l/m 2,4 km/h (1 Bft) 2 min 0,0 km/h (0 Bft)
19.08.2009 10:26 23,2 C 21,6 C 7,9 UV-I 7,4 C 55 % 69 % 100 % 1021,1 hPa 0,0 l/m 2,2 km/h (1 Bft) 2 min 6,7 km/h (2 Bft)
19.08.2009 10:28 23,2 C 21,7 C 11,9 UV-I 7,1 C 55 % 68 % 100 % 1021,1 hPa 0,0 l/m 2,4 km/h (1 Bft) 2 min 0,0 km/h (0 Bft)
19.08.2009 10:30 23,2 C 21,8 C 11,9 UV-I 7,0 C 55 % 68 % 100 % 1021,1 hPa 0,0 l/m 2,4 km/h (1 Bft) 2 min 3,6 km/h (1 Bft)
19.08.2009 10:32 23,2 C 22,1 C 12,3 UV-I 6,8 C 55 % 68 % 100 % 1021,1 hPa 0,0 l/m 2,9 km/h (1 Bft) 2 min 15,6 km/h (3 Bft)
19.08.2009 10:34 23,2 C 22,3 C 12,3 UV-I 6,7 C 55 % 68 % 100 % 1021,1 hPa 0,0 l/m 3,4 km/h (1 Bft) 2 min 7,9 km/h (2 Bft)
19.08.2009 10:36 23,2 C 22,4 C 12,3 UV-I 6,7 C 55 % 67 % 100 % 1021,0 hPa 0,0 l/m 3,1 km/h (1 Bft) 2 min 7,9 km/h (2 Bft)
19.08.2009 10:38 23,2 C 22,5 C 12,9 UV-I 6,8 C 55 % 66 % 100 % 1021,0 hPa 0,0 l/m 2,4 km/h (1 Bft) 2 min 2,6 km/h (1 Bft)
19.08.2009 10:40 23,3 C 22,7 C 12,9 UV-I 6,8 C 55 % 65 % 100 % 1021,0 hPa 0,0 l/m 2,4 km/h (1 Bft) 2 min 3,6 km/h (1 Bft)
19.08.2009 10:42 23,3 C 22,8 C 13,1 UV-I 7,0 C 55 % 65 % 100 % 1021,0 hPa 0,0 l/m 1,9 km/h (1 Bft) 2 min 7,0 km/h (2 Bft)
19.08.2009 10:44 23,2 C 22,9 C 13,1 UV-I 7,0 C 55 % 65 % 100 % 1021,0 hPa 0,0 l/m 2,6 km/h (1 Bft) 2 min 8,4 km/h (2 Bft)
19.08.2009 10:46 23,2 C 23,1 C 13,1 UV-I 6,5 C 55 % 64 % 100 % 1021,0 hPa 0,0 l/m 3,4 km/h (1 Bft) 2 min 6,0 km/h (2 Bft)
19.08.2009 10:48 23,2 C 23,2 C 13,0 UV-I 6,3 C 55 % 64 % 100 % 1021,0 hPa 0,0 l/m 3,4 km/h (1 Bft) 2 min 6,0 km/h (2 Bft)
19.08.2009 10:50 23,2 C 23,3 C 13,0 UV-I 6,4 C 55 % 63 % 100 % 1021,0 hPa 0,0 l/m 3,8 km/h (1 Bft) 2 min 7,7 km/h (2 Bft)
19.08.2009 10:52 23,4 C 23,5 C 12,7 UV-I 6,1 C 55 % 63 % 100 % 1021,0 hPa 0,0 l/m 4,6 km/h (1 Bft) 2 min 12,8 km/h (3 Bft)
19.08.2009 10:54 23,4 C 23,6 C 12,7 UV-I 5,9 C 55 % 62 % 100 % 1021,0 hPa 0,0 l/m 4,8 km/h (1 Bft) 2 min 12,8 km/h (3 Bft)
19.08.2009 10:56 23,4 C 23,7 C 12,7 UV-I 5,9 C 55 % 62 % 100 % 1021,3 hPa 0,0 l/m 4,1 km/h (1 Bft) 2 min 5,3 km/h (1 Bft)
19.08.2009 10:58 23,4 C 23,9 C 12,4 UV-I 5,8 C 55 % 61 % 100 % 1021,3 hPa 0,0 l/m 4,3 km/h (1 Bft) 2 min 4,1 km/h (1 Bft)
19.08.2009 11:00 23,4 C 24,0 C 12,4 UV-I 5,8 C 55 % 61 % 100 % 1021,3 hPa 0,0 l/m 5,5 km/h (1 Bft) 2 min 15,2 km/h (3 Bft)
19.08.2009 11:04 23,4 C 24,3 C 12,4 UV-I 5,6 C 55 % 59 % 100 % 1021,3 hPa 0,0 l/m 4,6 km/h (1 Bft) 2 min 15,2 km/h (3 Bft)
19.08.2009 11:08 23,4 C 24,4 C 12,5 UV-I 5,7 C 55 % 59 % 100 % 1021,3 hPa 0,0 l/m 4,6 km/h (1 Bft) 2 min 6,5 km/h (2 Bft)
19.08.2009 11:10 23,4 C 24,5 C 12,5 UV-I 5,6 C 55 % 59 % 100 % 1021,3 hPa 0,0 l/m 4,6 km/h (1 Bft) 2 min 6,7 km/h (2 Bft)
19.08.2009 11:12 23,4 C 24,6 C 12,8 UV-I 5,5 C 55 % 59 % 100 % 1021,3 hPa 0,0 l/m 4,6 km/h (1 Bft) 2 min 10,1 km/h (2 Bft)
19.08.2009 11:14 23,5 C 24,8 C 12,8 UV-I 5,2 C 55 % 59 % 100 % 1021,3 hPa 0,0 l/m 5,1 km/h (1 Bft) 2 min 10,1 km/h (2 Bft)
19.08.2009 11:16 23,5 C 24,9 C 12,8 UV-I 5,1 C 55 % 58 % 100 % 1021,2 hPa 0,0 l/m 5,5 km/h (1 Bft) 2 min 11,3 km/h (2 Bft)
19.08.2009 11:18 23,5 C 25,0 C 12,7 UV-I 5,1 C 55 % 58 % 100 % 1021,2 hPa 0,0 l/m 5,8 km/h (2 Bft) 2 min 12,8 km/h (3 Bft)
19.08.2009 11:20 23,5 C 25,1 C 12,7 UV-I 4,9 C 55 % 57 % 100 % 1021,2 hPa 0,0 l/m 6,3 km/h (2 Bft) 2 min 12,8 km/h (3 Bft)
19.08.2009 11:24 23,5 C 25,3 C 12,7 UV-I 4,8 C 55 % 58 % 100 % 1021,2 hPa 0,0 l/m 4,8 km/h (1 Bft) 2 min 9,9 km/h (2 Bft)
19.08.2009 11:26 23,6 C 25,5 C 12,7 UV-I 5,1 C 55 % 58 % 100 % 1021,2 hPa 0,0 l/m 4,8 km/h (1 Bft) 2 min 13,2 km/h (3 Bft)
19.08.2009 11:28 23,6 C 25,5 C 12,5 UV-I 5,1 C 55 % 57 % 100 % 1021,2 hPa 0,0 l/m 4,8 km/h (1 Bft) 2 min 13,2 km/h (3 Bft)
19.08.2009 11:30 23,6 C 25,7 C 12,5 UV-I 5,0 C 55 % 58 % 100 % 1021,2 hPa 0,0 l/m 3,4 km/h (1 Bft) 2 min 3,6 km/h (1 Bft)
19.08.2009 11:32 23,6 C 25,7 C 12,3 UV-I 5,4 C 55 % 56 % 100 % 1021,2 hPa 0,0 l/m 3,4 km/h (1 Bft) 2 min 10,6 km/h (2 Bft)
19.08.2009 11:34 23,6 C 25,9 C 12,3 UV-I 5,1 C 55 % 56 % 100 % 1021,2 hPa 0,0 l/m 4,6 km/h (1 Bft) 2 min 11,1 km/h (2 Bft)
19.08.2009 11:38 23,6 C 26,1 C 12,2 UV-I 4,9 C 55 % 55 % 100 % 1021,1 hPa 0,0 l/m 4,6 km/h (1 Bft) 2 min 11,1 km/h (2 Bft)
19.08.2009 11:40 23,6 C 26,1 C 12,2 UV-I 4,9 C 55 % 56 % 100 % 1021,1 hPa 0,0 l/m 4,3 km/h (1 Bft) 2 min 5,8 km/h (2 Bft)
19.08.2009 11:42 23,6 C 26,2 C 11,9 UV-I 5,2 C 55 % 56 % 100 % 1021,1 hPa 0,0 l/m 4,3 km/h (1 Bft) 2 min 16,6 km/h (3 Bft)
19.08.2009 11:44 23,6 C 26,4 C 11,9 UV-I 5,1 C 55 % 56 % 100 % 1021,1 hPa 0,0 l/m 3,6 km/h (1 Bft) 2 min 2,4 km/h (1 Bft)
19.08.2009 11:46 23,6 C 26,5 C 11,9 UV-I 5,2 C 55 % 55 % 100 % 1021,1 hPa 0,0 l/m 2,9 km/h (1 Bft) 2 min 5,3 km/h (1 Bft)
19.08.2009 11:48 23,6 C 26,6 C 11,7 UV-I 5,3 C 55 % 55 % 100 % 1021,1 hPa 0,0 l/m 2,9 km/h (1 Bft) 2 min 5,3 km/h (1 Bft)
19.08.2009 11:50 23,7 C 26,7 C 11,7 UV-I 5,3 C 55 % 54 % 100 % 1021,1 hPa 0,0 l/m 2,4 km/h (1 Bft) 2 min 3,8 km/h (1 Bft)
19.08.2009 11:52 23,7 C 26,8 C 11,9 UV-I 5,6 C 55 % 54 % 100 % 1021,1 hPa 0,0 l/m 2,2 km/h (1 Bft) 2 min 3,8 km/h (1 Bft)
19.08.2009 11:54 23,7 C 26,9 C 11,9 UV-I 5,7 C 55 % 53 % 100 % 1021,1 hPa 0,0 l/m 2,6 km/h (1 Bft) 2 min 10,1 km/h (2 Bft)
19.08.2009 11:56 23,7 C 27,1 C 11,9 UV-I 5,4 C 55 % 53 % 100 % 1021,2 hPa 0,0 l/m 3,4 km/h (1 Bft) 2 min 7,5 km/h (2 Bft)
19.08.2009 11:58 23,7 C 27,2 C 11,8 UV-I 5,0 C 55 % 53 % 100 % 1021,2 hPa 0,0 l/m 3,1 km/h (1 Bft) 2 min 7,5 km/h (2 Bft)
19.08.2009 12:00 23,7 C 27,2 C 11,8 UV-I 5,2 C 55 % 53 % 100 % 1021,2 hPa 0,0 l/m 3,4 km/h (1 Bft) 2 min 4,8 km/h (1 Bft)
19.08.2009 12:02 23,7 C 27,4 C 11,8 UV-I 5,0 C 55 % 53 % 100 % 1021,2 hPa 0,0 l/m 3,4 km/h (1 Bft) 2 min 4,8 km/h (1 Bft)
19.08.2009 12:04 23,7 C 27,6 C 11,8 UV-I 4,9 C 55 % 52 % 100 % 1021,2 hPa 0,0 l/m 3,6 km/h (1 Bft) 2 min 2,6 km/h (1 Bft)
19.08.2009 12:08 23,8 C 27,7 C 11,9 UV-I 5,2 C 55 % 52 % 100 % 1021,2 hPa 0,0 l/m 2,4 km/h (1 Bft) 2 min 2,9 km/h (1 Bft)
19.08.2009 12:10 23,8 C 27,9 C 11,9 UV-I 5,2 C 55 % 52 % 100 % 1021,2 hPa 0,0 l/m 2,2 km/h (1 Bft) 2 min 6,3 km/h (2 Bft)
19.08.2009 12:12 23,8 C 27,9 C 12,0 UV-I 5,4 C 55 % 51 % 100 % 1021,2 hPa 0,0 l/m 1,9 km/h (1 Bft) 2 min 6,3 km/h (2 Bft)
19.08.2009 12:14 23,8 C 28,0 C 12,0 UV-I 5,5 C 55 % 50 % 100 % 1021,2 hPa 0,0 l/m 1,7 km/h (1 Bft) 2 min 5,8 km/h (2 Bft)
19.08.2009 12:20 23,9 C 28,3 C 11,8 UV-I 5,0 C 55 % 50 % 100 % 1021,1 hPa 0,0 l/m 2,9 km/h (1 Bft) 2 min 9,1 km/h (2 Bft)
19.08.2009 12:24 23,9 C 28,4 C 11,2 UV-I 5,1 C 55 % 49 % 100 % 1021,1 hPa 0,0 l/m 2,9 km/h (1 Bft) 2 min 5,1 km/h (1 Bft)
19.08.2009 12:26 23,9 C 28,5 C 11,2 UV-I 5,1 C 55 % 48 % 100 % 1021,1 hPa 0,0 l/m 2,6 km/h (1 Bft) 2 min 5,3 km/h (1 Bft)
19.08.2009 12:28 23,9 C 28,7 C 10,9 UV-I 4,9 C 55 % 48 % 100 % 1021,1 hPa 0,0 l/m 2,4 km/h (1 Bft) 2 min 5,3 km/h (1 Bft)
19.08.2009 12:30 23,9 C 28,7 C 10,9 UV-I 5,0 C 55 % 49 % 100 % 1021,1 hPa 0,0 l/m 2,4 km/h (1 Bft) 2 min 6,7 km/h (2 Bft)
19.08.2009 12:32 24,0 C 28,8 C 10,4 UV-I 4,8 C 55 % 48 % 100 % 1021,1 hPa 0,0 l/m 3,6 km/h (1 Bft) 2 min 14,7 km/h (3 Bft)
19.08.2009 12:34 24,0 C 28,9 C 10,4 UV-I 4,4 C 55 % 48 % 100 % 1021,1 hPa 0,0 l/m 4,1 km/h (1 Bft) 2 min 5,8 km/h (2 Bft)
19.08.2009 12:36 24,0 C 29,1 C 10,4 UV-I 4,2 C 55 % 49 % 100 % 1020,9 hPa 0,0 l/m 3,8 km/h (1 Bft) 2 min 0,0 km/h (0 Bft)
19.08.2009 12:38 24,0 C 29,1 C 10,5 UV-I 4,4 C 55 % 47 % 100 % 1020,9 hPa 0,0 l/m 3,8 km/h (1 Bft) 2 min 3,8 km/h (1 Bft)
19.08.2009 12:40 24,0 C 29,2 C 10,5 UV-I 4,4 C 55 % 47 % 100 % 1020,9 hPa 0,0 l/m 3,8 km/h (1 Bft) 2 min 4,1 km/h (1 Bft)
19.08.2009 12:42 24,0 C 29,3 C 9,9 UV-I 4,5 C 55 % 47 % 100 % 1020,9 hPa 0,0 l/m 3,1 km/h (1 Bft) 2 min 4,1 km/h (1 Bft)
19.08.2009 12:44 24,0 C 29,3 C 9,9 UV-I 4,8 C 55 % 47 % 100 % 1020,9 hPa 0,0 l/m 1,9 km/h (1 Bft) 2 min 0,0 km/h (0 Bft)
19.08.2009 12:46 24,0 C 29,4 C 9,9 UV-I 4,9 C 55 % 47 % 100 % 1020,9 hPa 0,0 l/m 1,7 km/h (1 Bft) 2 min 5,5 km/h (1 Bft)
19.08.2009 12:48 24,0 C 29,4 C 9,6 UV-I 5,1 C 55 % 47 % 100 % 1020,9 hPa 0,0 l/m 1,4 km/h (1 Bft) 2 min 5,5 km/h (1 Bft)
19.08.2009 12:50 24,1 C 29,6 C 9,6 UV-I 5,0 C 55 % 47 % 100 % 1020,9 hPa 0,0 l/m 1,2 km/h (1 Bft) 2 min 0,0 km/h (0 Bft)
19.08.2009 12:52 24,1 C 29,7 C 9,6 UV-I 5,0 C 55 % 48 % 100 % 1020,9 hPa 0,0 l/m 1,7 km/h (1 Bft) 2 min 0,0 km/h (0 Bft)
19.08.2009 12:54 24,1 C 29,8 C 9,6 UV-I 4,9 C 55 % 46 % 100 % 1020,9 hPa 0,0 l/m 1,9 km/h (1 Bft) 2 min 0,0 km/h (0 Bft)
19.08.2009 12:58 24,1 C 29,9 C 9,5 UV-I 4,7 C 55 % 45 % 100 % 1020,9 hPa 0,0 l/m 2,6 km/h (1 Bft) 2 min 3,1 km/h (1 Bft)
19.08.2009 13:00 24,2 C 30,0 C 9,5 UV-I 4,5 C 55 % 46 % 100 % 1020,9 hPa 0,0 l/m 2,9 km/h (1 Bft) 2 min 4,1 km/h (1 Bft)
19.08.2009 13:02 24,2 C 30,0 C 8,7 UV-I 4,4 C 55 % 44 % 100 % 1020,9 hPa 0,0 l/m 2,4 km/h (1 Bft) 2 min 5,3 km/h (1 Bft)
19.08.2009 13:04 24,2 C 30,1 C 8,7 UV-I 4,4 C 55 % 44 % 100 % 1020,9 hPa 0,0 l/m 2,6 km/h (1 Bft) 2 min 9,1 km/h (2 Bft)
19.08.2009 13:06 24,2 C 30,0 C 8,7 UV-I 4,5 C 55 % 45 % 100 % 1020,9 hPa 0,0 l/m 2,6 km/h (1 Bft) 2 min 9,1 km/h (2 Bft)
19.08.2009 13:08 24,3 C 30,2 C 9,3 UV-I 4,3 C 55 % 45 % 100 % 1020,9 hPa 0,0 l/m 2,9 km/h (1 Bft) 2 min 6,5 km/h (2 Bft)
19.08.2009 13:10 24,3 C 30,3 C 9,3 UV-I 4,2 C 55 % 45 % 100 % 1020,9 hPa 0,0 l/m 2,9 km/h (1 Bft) 2 min 6,5 km/h (2 Bft)
19.08.2009 13:12 24,2 C 30,4 C 5,7 UV-I 4,2 C 55 % 44 % 100 % 1020,9 hPa 0,0 l/m 2,9 km/h (1 Bft) 2 min 7,5 km/h (2 Bft)
19.08.2009 13:14 24,2 C 30,5 C 5,7 UV-I 4,0 C 55 % 43 % 100 % 1020,9 hPa 0,0 l/m 3,6 km/h (1 Bft) 2 min 8,2 km/h (2 Bft)
19.08.2009 13:18 24,4 C 30,5 C 6,8 UV-I 3,9 C 55 % 44 % 100 % 1020,9 hPa 0,0 l/m 3,6 km/h (1 Bft) 2 min 8,2 km/h (2 Bft)
19.08.2009 13:22 24,4 C 30,7 C 3,7 UV-I 4,0 C 55 % 43 % 100 % 1020,9 hPa 0,0 l/m 2,6 km/h (1 Bft) 2 min 9,1 km/h (2 Bft)
19.08.2009 13:24 24,5 C 30,8 C 3,7 UV-I 4,1 C 55 % 43 % 100 % 1020,9 hPa 0,0 l/m 2,4 km/h (1 Bft) 2 min 9,1 km/h (2 Bft)
19.08.2009 13:26 24,5 C 30,8 C 3,7 UV-I 4,3 C 55 % 43 % 100 % 1020,9 hPa 0,0 l/m 1,9 km/h (1 Bft) 2 min 2,6 km/h (1 Bft)
19.08.2009 13:28 24,5 C 30,8 C 5,2 UV-I 4,3 C 54 % 43 % 100 % 1020,9 hPa 0,0 l/m 1,9 km/h (1 Bft) 2 min 2,4 km/h (1 Bft)
19.08.2009 13:30 24,6 C 30,9 C 5,2 UV-I 4,2 C 54 % 42 % 100 % 1020,9 hPa 0,0 l/m 2,2 km/h (1 Bft) 2 min 4,1 km/h (1 Bft)
19.08.2009 13:32 24,6 C 31,1 C 5,5 UV-I 4,2 C 54 % 42 % 100 % 1020,9 hPa 0,0 l/m 1,9 km/h (1 Bft) 2 min 4,1 km/h (1 Bft)
19.08.2009 13:34 24,6 C 31,1 C 5,5 UV-I 4,3 C 54 % 42 % 100 % 1020,9 hPa 0,0 l/m 2,4 km/h (1 Bft) 2 min 5,5 km/h (1 Bft)
19.08.2009 13:36 24,6 C 31,3 C 5,5 UV-I 4,2 C 54 % 43 % 100 % 1020,5 hPa 0,0 l/m 2,6 km/h (1 Bft) 2 min 6,0 km/h (2 Bft)
19.08.2009 13:40 24,7 C 31,5 C 6,8 UV-I 3,9 C 54 % 42 % 100 % 1020,5 hPa 0,0 l/m 2,9 km/h (1 Bft) 2 min 7,0 km/h (2 Bft)
19.08.2009 13:42 24,8 C 31,4 C 8,2 UV-I 4,0 C 54 % 42 % 100 % 1020,5 hPa 0,0 l/m 3,1 km/h (1 Bft) 2 min 3,4 km/h (1 Bft)
19.08.2009 13:44 24,8 C 31,6 C 8,2 UV-I 4,0 C 54 % 42 % 100 % 1020,5 hPa 0,0 l/m 3,1 km/h (1 Bft) 2 min 6,3 km/h (2 Bft)
19.08.2009 13:46 24,9 C 31,6 C 8,2 UV-I 3,9 C 54 % 41 % 100 % 1020,5 hPa 0,0 l/m 2,9 km/h (1 Bft) 2 min 6,3 km/h (2 Bft)
19.08.2009 13:48 24,9 C 31,6 C 8,2 UV-I 4,1 C 54 % 42 % 100 % 1020,5 hPa 0,0 l/m 2,2 km/h (1 Bft) 2 min 0,0 km/h (0 Bft)
19.08.2009 13:50 25,0 C 31,7 C 8,2 UV-I 4,1 C 54 % 41 % 100 % 1020,5 hPa 0,0 l/m 1,7 km/h (1 Bft) 2 min 0,0 km/h (0 Bft)
19.08.2009 13:52 25,0 C 31,8 C 8,0 UV-I 4,2 C 53 % 42 % 100 % 1020,5 hPa 0,0 l/m 1,7 km/h (1 Bft) 2 min 6,5 km/h (2 Bft)
19.08.2009 13:54 25,0 C 31,9 C 8,0 UV-I 4,1 C 53 % 41 % 100 % 1020,5 hPa 0,0 l/m 1,7 km/h (1 Bft) 2 min 0,0 km/h (0 Bft)
19.08.2009 13:56 25,1 C 32,1 C 8,0 UV-I 4,0 C 53 % 42 % 100 % 1020,7 hPa 0,0 l/m 1,9 km/h (1 Bft) 2 min 9,6 km/h (2 Bft)
19.08.2009 14:00 25,2 C 32,2 C 7,9 UV-I 3,6 C 53 % 42 % 100 % 1020,7 hPa 0,0 l/m 3,1 km/h (1 Bft) 2 min 9,6 km/h (2 Bft)
19.08.2009 14:02 25,3 C 32,3 C 8,0 UV-I 3,5 C 53 % 40 % 100 % 1020,7 hPa 0,0 l/m 3,6 km/h (1 Bft) 2 min 7,0 km/h (2 Bft)
19.08.2009 14:04 25,4 C 32,3 C 8,0 UV-I 3,4 C 53 % 40 % 97 % 1020,7 hPa 0,0 l/m 3,6 km/h (1 Bft) 2 min 6,3 km/h (2 Bft)
19.08.2009 14:06 25,4 C 32,2 C 8,0 UV-I 3,5 C 53 % 40 % 100 % 1020,7 hPa 0,0 l/m 3,8 km/h (1 Bft) 2 min 7,7 km/h (2 Bft)
19.08.2009 14:08 25,5 C 32,3 C 8,0 UV-I 3,3 C 53 % 40 % 94 % 1020,7 hPa 0,0 l/m 3,6 km/h (1 Bft) 2 min 7,7 km/h (2 Bft)
19.08.2009 14:12 25,6 C 32,5 C 7,9 UV-I 3,3 C 52 % 40 % 94 % 1020,7 hPa 0,0 l/m 2,9 km/h (1 Bft) 2 min 6,0 km/h (2 Bft)
19.08.2009 14:16 25,8 C 32,5 C 7,9 UV-I 3,8 C 52 % 40 % 100 % 1022,1 hPa 0,0 l/m 2,9 km/h (1 Bft) 2 min 12,3 km/h (3 Bft)
19.08.2009 14:20 25,8 C 32,6 C 7,7 UV-I 3,2 C 52 % 40 % 91 % 1022,1 hPa 0,0 l/m 3,8 km/h (1 Bft) 2 min 5,1 km/h (1 Bft)
19.08.2009 14:22 25,9 C 32,7 C 7,8 UV-I 3,2 C 52 % 39 % 91 % 1022,1 hPa 0,0 l/m 3,4 km/h (1 Bft) 2 min 22,1 km/h (4 Bft)
19.08.2009 14:26 26,0 C 32,6 C 7,8 UV-I 3,6 C 52 % 39 % 100 % 1022,1 hPa 0,0 l/m 4,8 km/h (1 Bft) 2 min 9,9 km/h (2 Bft)
19.08.2009 14:28 26,1 C 32,8 C 7,9 UV-I 3,4 C 51 % 40 % 97 % 1022,1 hPa 0,0 l/m 2,6 km/h (1 Bft) 2 min 0,0 km/h (0 Bft)
19.08.2009 14:32 26,2 C 32,9 C 8,0 UV-I 3,6 C 51 % 39 % 100 % 1022,1 hPa 0,0 l/m 3,1 km/h (1 Bft) 2 min 7,2 km/h (2 Bft)
19.08.2009 14:36 26,4 C 33,0 C 8,0 UV-I 3,3 C 51 % 38 % 94 % 1024,4 hPa 0,0 l/m 3,1 km/h (1 Bft) 2 min 4,3 km/h (1 Bft)
19.08.2009 14:42 26,5 C 33,1 C 7,8 UV-I 3,2 C 50 % 36 % 91 % 1024,4 hPa 0,0 l/m 3,8 km/h (1 Bft) 2 min 8,9 km/h (2 Bft)
19.08.2009 14:44 26,6 C 33,1 C 7,8 UV-I 3,1 C 50 % 37 % 89 % 1024,4 hPa 0,0 l/m 4,3 km/h (1 Bft) 2 min 7,7 km/h (2 Bft)
19.08.2009 14:46 26,6 C 33,2 C 7,8 UV-I 3,0 C 50 % 37 % 86 % 1024,4 hPa 0,0 l/m 3,8 km/h (1 Bft) 2 min 7,7 km/h (2 Bft)
19.08.2009 14:48 26,6 C 33,2 C 7,8 UV-I 3,4 C 50 % 36 % 97 % 1024,4 hPa 0,0 l/m 3,4 km/h (1 Bft) 2 min 4,1 km/h (1 Bft)
19.08.2009 14:50 26,7 C 33,2 C 7,8 UV-I 3,6 C 49 % 35 % 100 % 1024,4 hPa 0,0 l/m 2,9 km/h (1 Bft) 2 min 4,6 km/h (1 Bft)
19.08.2009 14:52 26,8 C 33,3 C 8,2 UV-I 3,5 C 49 % 34 % 100 % 1024,4 hPa 0,0 l/m 3,1 km/h (1 Bft) 2 min 4,6 km/h (1 Bft)
19.08.2009 14:56 26,9 C 33,1 C 8,2 UV-I 3,4 C 49 % 36 % 97 % 1024,1 hPa 0,0 l/m 3,1 km/h (1 Bft) 2 min 9,1 km/h (2 Bft)
19.08.2009 14:58 27,0 C 33,3 C 8,4 UV-I 3,3 C 49 % 36 % 94 % 1024,1 hPa 0,0 l/m 3,4 km/h (1 Bft) 2 min 4,6 km/h (1 Bft)
19.08.2009 15:00 27,0 C 33,3 C 8,4 UV-I 3,5 C 49 % 36 % 100 % 1024,1 hPa 0,0 l/m 3,6 km/h (1 Bft) 2 min 6,7 km/h (2 Bft)
19.08.2009 15:02 27,1 C 33,4 C 8,9 UV-I 3,5 C 48 % 36 % 100 % 1024,1 hPa 0,0 l/m 3,4 km/h (1 Bft) 2 min 7,7 km/h (2 Bft)
19.08.2009 15:06 27,2 C 33,7 C 8,9 UV-I 3,2 C 48 % 35 % 91 % 1024,1 hPa 0,0 l/m 3,8 km/h (1 Bft) 2 min 12,0 km/h (2 Bft)
19.08.2009 15:10 27,3 C 33,6 C 9,6 UV-I 3,3 C 48 % 35 % 94 % 1024,1 hPa 0,0 l/m 3,8 km/h (1 Bft) 2 min 7,5 km/h (2 Bft)
19.08.2009 15:12 27,4 C 33,7 C 10,0 UV-I 3,3 C 48 % 35 % 94 % 1024,1 hPa 0,0 l/m 3,8 km/h (1 Bft) 2 min 3,8 km/h (1 Bft)
19.08.2009 15:16 27,5 C 33,7 C 10,0 UV-I 3,5 C 47 % 33 % 100 % 1024,7 hPa 0,0 l/m 2,9 km/h (1 Bft) 2 min 8,7 km/h (2 Bft)
19.08.2009 15:18 27,6 C 33,7 C 10,2 UV-I 3,4 C 47 % 33 % 97 % 1024,7 hPa 0,0 l/m 3,1 km/h (1 Bft) 2 min 10,3 km/h (2 Bft)
19.08.2009 15:20 27,6 C 33,9 C 10,2 UV-I 3,0 C 47 % 34 % 86 % 1024,7 hPa 0,0 l/m 3,6 km/h (1 Bft) 2 min 4,3 km/h (1 Bft)
19.08.2009 15:22 27,7 C 33,9 C 10,2 UV-I 3,0 C 47 % 34 % 86 % 1024,7 hPa 0,0 l/m 3,4 km/h (1 Bft) 2 min 4,3 km/h (1 Bft)
19.08.2009 15:24 27,8 C 33,9 C 10,2 UV-I 3,0 C 47 % 35 % 86 % 1024,7 hPa 0,0 l/m 3,6 km/h (1 Bft) 2 min 3,4 km/h (1 Bft)
19.08.2009 15:28 27,8 C 34,0 C 10,4 UV-I 3,2 C 46 % 34 % 91 % 1024,7 hPa 0,0 l/m 3,1 km/h (1 Bft) 2 min 5,3 km/h (1 Bft)
19.08.2009 15:30 27,9 C 34,2 C 10,4 UV-I 3,1 C 46 % 34 % 89 % 1024,7 hPa 0,0 l/m 2,6 km/h (1 Bft) 2 min 2,9 km/h (1 Bft)
19.08.2009 15:36 28,0 C 34,3 C 10,8 UV-I 3,3 C 46 % 33 % 94 % 1023,0 hPa 0,0 l/m 1,9 km/h (1 Bft) 2 min 4,8 km/h (1 Bft)
19.08.2009 15:38 28,0 C 34,2 C 10,8 UV-I 3,4 C 46 % 34 % 97 % 1023,0 hPa 0,0 l/m 2,9 km/h (1 Bft) 2 min 9,4 km/h (2 Bft)
19.08.2009 15:40 28,2 C 34,3 C 10,8 UV-I 3,1 C 46 % 34 % 89 % 1023,0 hPa 0,0 l/m 3,8 km/h (1 Bft) 2 min 9,4 km/h (2 Bft)
19.08.2009 15:42 28,2 C 34,3 C 10,8 UV-I 2,9 C 45 % 34 % 83 % 1023,0 hPa 0,0 l/m 4,3 km/h (1 Bft) 2 min 9,4 km/h (2 Bft)
19.08.2009 15:44 28,2 C 34,5 C 10,8 UV-I 2,6 C 45 % 34 % 74 % 1023,0 hPa 0,0 l/m 4,6 km/h (1 Bft) 0 min 7,9 km/h (2 Bft)
19.08.2009 15:46 28,2 C 34,4 C 10,8 UV-I 2,7 C 45 % 33 % 77 % 1023,0 hPa 0,0 l/m 5,3 km/h (1 Bft) 0 min 5,3 km/h (1 Bft)
19.08.2009 15:48 28,4 C 34,5 C 11,1 UV-I 2,7 C 45 % 32 % 77 % 1023,0 hPa 0,0 l/m 4,8 km/h (1 Bft) 0 min 7,9 km/h (2 Bft)
19.08.2009 15:50 28,4 C 34,3 C 11,1 UV-I 3,1 C 45 % 32 % 89 % 1023,0 hPa 0,0 l/m 3,6 km/h (1 Bft) 2 min 5,5 km/h (1 Bft)
19.08.2009 15:52 28,5 C 34,3 C 11,1 UV-I 3,2 C 45 % 32 % 91 % 1023,0 hPa 0,0 l/m 3,1 km/h (1 Bft) 2 min 6,5 km/h (2 Bft)
19.08.2009 15:54 28,6 C 34,4 C 11,1 UV-I 3,2 C 44 % 33 % 91 % 1023,0 hPa 0,0 l/m 2,2 km/h (1 Bft) 2 min 3,8 km/h (1 Bft)
19.08.2009 16:00 28,7 C 34,4 C 10,9 UV-I 3,5 C 44 % 32 % 100 % 1024,1 hPa 0,0 l/m 2,6 km/h (1 Bft) 2 min 13,5 km/h (3 Bft)
19.08.2009 16:02 28,7 C 34,3 C 10,3 UV-I 3,4 C 44 % 32 % 97 % 1024,1 hPa 0,0 l/m 2,9 km/h (1 Bft) 2 min 2,6 km/h (1 Bft)
19.08.2009 16:04 28,8 C 34,4 C 10,3 UV-I 3,4 C 44 % 33 % 97 % 1024,1 hPa 0,0 l/m 2,6 km/h (1 Bft) 2 min 4,8 km/h (1 Bft)
19.08.2009 16:06 28,8 C 34,3 C 10,3 UV-I 3,7 C 44 % 32 % 100 % 1024,1 hPa 0,0 l/m 3,1 km/h (1 Bft) 2 min 4,8 km/h (1 Bft)
19.08.2009 16:08 28,9 C 34,3 C 10,4 UV-I 3,7 C 44 % 33 % 100 % 1024,1 hPa 0,0 l/m 3,4 km/h (1 Bft) 2 min 5,5 km/h (1 Bft)
19.08.2009 16:10 29,0 C 34,4 C 10,4 UV-I 3,5 C 44 % 33 % 100 % 1024,1 hPa 0,0 l/m 3,8 km/h (1 Bft) 2 min 9,1 km/h (2 Bft)
19.08.2009 16:12 29,0 C 34,3 C 11,2 UV-I 3,4 C 43 % 33 % 97 % 1024,1 hPa 0,0 l/m 3,6 km/h (1 Bft) 2 min 9,6 km/h (2 Bft)
19.08.2009 16:16 29,1 C 34,3 C 11,2 UV-I 3,2 C 43 % 32 % 91 % 1024,3 hPa 0,0 l/m 4,6 km/h (1 Bft) 2 min 9,6 km/h (2 Bft)
19.08.2009 16:18 29,2 C 34,3 C 11,1 UV-I 3,1 C 43 % 33 % 89 % 1024,3 hPa 0,0 l/m 4,1 km/h (1 Bft) 2 min 7,2 km/h (2 Bft)
19.08.2009 16:20 29,2 C 34,3 C 11,1 UV-I 3,2 C 43 % 32 % 91 % 1024,3 hPa 0,0 l/m 3,6 km/h (1 Bft) 2 min 5,5 km/h (1 Bft)
19.08.2009 16:22 29,2 C 34,3 C 8,7 UV-I 3,5 C 43 % 32 % 100 % 1024,3 hPa 0,0 l/m 2,4 km/h (1 Bft) 2 min 0,0 km/h (0 Bft)
19.08.2009 16:24 29,2 C 34,3 C 8,7 UV-I 3,6 C 43 % 32 % 100 % 1024,3 hPa 0,0 l/m 1,7 km/h (1 Bft) 2 min 3,6 km/h (1 Bft)
19.08.2009 16:26 29,4 C 34,2 C 8,7 UV-I 3,8 C 43 % 32 % 100 % 1024,3 hPa 0,0 l/m 1,4 km/h (1 Bft) 2 min 3,6 km/h (1 Bft)
19.08.2009 16:28 29,4 C 34,3 C 3,9 UV-I 3,9 C 42 % 32 % 100 % 1024,3 hPa 0,0 l/m 1,7 km/h (1 Bft) 2 min 4,6 km/h (1 Bft)
19.08.2009 16:30 29,4 C 34,2 C 3,9 UV-I 4,0 C 42 % 32 % 100 % 1024,3 hPa 0,0 l/m 1,7 km/h (1 Bft) 2 min 7,0 km/h (2 Bft)
19.08.2009 16:36 29,6 C 34,3 C 3,0 UV-I 3,9 C 42 % 32 % 100 % 1024,1 hPa 0,0 l/m 2,9 km/h (1 Bft) 2 min 4,8 km/h (1 Bft)
19.08.2009 16:38 29,6 C 34,3 C 2,7 UV-I 3,7 C 42 % 32 % 100 % 1024,1 hPa 0,0 l/m 3,4 km/h (1 Bft) 2 min 4,8 km/h (1 Bft)
19.08.2009 16:40 29,6 C 34,5 C 2,7 UV-I 3,4 C 42 % 31 % 97 % 1024,1 hPa 0,0 l/m 3,4 km/h (1 Bft) 2 min 9,4 km/h (2 Bft)
19.08.2009 16:42 29,6 C 34,5 C 2,6 UV-I 3,2 C 42 % 31 % 91 % 1024,1 hPa 0,0 l/m 3,6 km/h (1 Bft) 2 min 9,4 km/h (2 Bft)
19.08.2009 16:44 29,7 C 34,5 C 2,6 UV-I 3,1 C 42 % 32 % 89 % 1024,1 hPa 0,0 l/m 3,8 km/h (1 Bft) 2 min 6,7 km/h (2 Bft)
19.08.2009 16:46 29,7 C 34,5 C 2,6 UV-I 3,0 C 42 % 32 % 86 % 1024,1 hPa 0,0 l/m 3,8 km/h (1 Bft) 2 min 6,7 km/h (2 Bft)
19.08.2009 16:48 29,7 C 34,4 C 2,6 UV-I 3,1 C 42 % 31 % 89 % 1024,1 hPa 0,0 l/m 4,1 km/h (1 Bft) 2 min 5,3 km/h (1 Bft)
19.08.2009 16:54 29,8 C 34,3 C 2,7 UV-I 3,3 C 41 % 31 % 94 % 1024,1 hPa 0,0 l/m 3,8 km/h (1 Bft) 2 min 0,0 km/h (0 Bft)
19.08.2009 16:58 29,8 C 34,2 C 2,4 UV-I 3,5 C 41 % 31 % 100 % 1023,0 hPa 0,0 l/m 2,9 km/h (1 Bft) 2 min 7,9 km/h (2 Bft)
19.08.2009 17:00 29,8 C 34,2 C 2,4 UV-I 3,5 C 41 % 31 % 100 % 1023,0 hPa 0,0 l/m 2,9 km/h (1 Bft) 2 min 7,9 km/h (2 Bft)
19.08.2009 17:04 29,9 C 34,2 C 2,3 UV-I 3,4 C 41 % 31 % 97 % 1023,0 hPa 0,0 l/m 2,6 km/h (1 Bft) 2 min 8,7 km/h (2 Bft)
19.08.2009 17:06 29,9 C 34,1 C 2,3 UV-I 3,5 C 41 % 31 % 100 % 1023,0 hPa 0,0 l/m 2,9 km/h (1 Bft) 2 min 8,7 km/h (2 Bft)
19.08.2009 17:12 29,9 C 33,9 C 2,1 UV-I 3,6 C 41 % 31 % 100 % 1023,0 hPa 0,0 l/m 2,6 km/h (1 Bft) 2 min 4,6 km/h (1 Bft)
19.08.2009 17:14 29,9 C 33,8 C 2,1 UV-I 3,5 C 41 % 31 % 100 % 1023,0 hPa 0,0 l/m 2,6 km/h (1 Bft) 2 min 2,4 km/h (1 Bft)
19.08.2009 17:16 29,9 C 33,7 C 2,1 UV-I 3,7 C 41 % 31 % 100 % 1023,0 hPa 0,0 l/m 2,6 km/h (1 Bft) 2 min 2,4 km/h (1 Bft)
19.08.2009 17:18 29,9 C 33,7 C 2,2 UV-I 3,8 C 41 % 31 % 100 % 1023,0 hPa 0,0 l/m 2,2 km/h (1 Bft) 2 min 3,8 km/h (1 Bft)
19.08.2009 17:20 30,0 C 33,6 C 2,2 UV-I 3,7 C 41 % 32 % 100 % 1023,0 hPa 0,0 l/m 2,2 km/h (1 Bft) 2 min 3,8 km/h (1 Bft)
19.08.2009 17:22 30,0 C 33,5 C 2,1 UV-I 3,3 C 41 % 32 % 94 % 1023,0 hPa 0,0 l/m 1,7 km/h (1 Bft) 2 min 0,0 km/h (0 Bft)
19.08.2009 17:24 29,9 C 33,5 C 2,1 UV-I 2,8 C 41 % 33 % 80 % 1023,0 hPa 0,0 l/m 1,9 km/h (1 Bft) 0 min 5,5 km/h (1 Bft)
19.08.2009 17:26 29,9 C 33,5 C 2,1 UV-I 2,4 C 41 % 33 % 69 % 1023,0 hPa 0,0 l/m 1,7 km/h (1 Bft) 0 min 5,5 km/h (1 Bft)
19.08.2009 17:28 29,9 C 33,4 C 2,0 UV-I 2,0 C 41 % 32 % 57 % 1023,0 hPa 0,0 l/m 2,2 km/h (1 Bft) 0 min 7,7 km/h (2 Bft)
19.08.2009 17:30 29,8 C 33,3 C 2,0 UV-I 1,9 C 41 % 32 % 54 % 1023,0 hPa 0,0 l/m 2,6 km/h (1 Bft) 0 min 7,7 km/h (2 Bft)
19.08.2009 17:36 29,6 C 33,0 C 1,9 UV-I 2,3 C 41 % 32 % 66 % 1022,5 hPa 0,0 l/m 3,1 km/h (1 Bft) 0 min 4,8 km/h (1 Bft)
19.08.2009 17:38 29,6 C 33,1 C 1,8 UV-I 1,7 C 42 % 32 % 49 % 1022,5 hPa 0,0 l/m 3,6 km/h (1 Bft) 0 min 3,6 km/h (1 Bft)
19.08.2009 17:40 29,6 C 33,0 C 1,8 UV-I 1,4 C 42 % 33 % 40 % 1022,5 hPa 0,0 l/m 2,9 km/h (1 Bft) 0 min 3,6 km/h (1 Bft)
19.08.2009 17:42 29,6 C 32,9 C 1,8 UV-I 1,3 C 42 % 33 % 37 % 1022,5 hPa 0,0 l/m 2,4 km/h (1 Bft) 0 min 3,8 km/h (1 Bft)
19.08.2009 17:48 29,4 C 32,7 C 1,7 UV-I 0,9 C 42 % 32 % 26 % 1022,5 hPa 0,0 l/m 1,7 km/h (1 Bft) 0 min 6,7 km/h (2 Bft)
19.08.2009 17:49 29,4 C 32,7 C 1,7 UV-I 0,6 C 42 % 33 % 17 % 1022,5 hPa 0,0 l/m 2,2 km/h (1 Bft) 0 min 3,1 km/h (1 Bft)
19.08.2009 17:54 29,2 C 32,5 C 1,6 UV-I 0,5 C 42 % 33 % 14 % 1022,5 hPa 0,0 l/m 2,2 km/h (1 Bft) 0 min 0,0 km/h (0 Bft)
19.08.2009 17:59 29,2 C 32,3 C 1,7 UV-I 0,5 C 42 % 33 % 14 % 1021,9 hPa 0,0 l/m 1,2 km/h (1 Bft) 0 min 0,0 km/h (0 Bft)
19.08.2009 18:04 29,0 C 32,2 C 1,6 UV-I 0,6 C 42 % 33 % 17 % 1021,9 hPa 0,0 l/m 1,0 km/h (0 Bft) 0 min 0,0 km/h (0 Bft)
19.08.2009 18:09 28,9 C 32,1 C 1,5 UV-I 0,8 C 42 % 33 % 23 % 1021,9 hPa 0,0 l/m 1,0 km/h (0 Bft) 0 min 2,4 km/h (1 Bft)
19.08.2009 18:14 28,8 C 32,0 C 1,4 UV-I 0,9 C 43 % 33 % 26 % 1021,9 hPa 0,0 l/m 0,5 km/h (0 Bft) 0 min 0,0 km/h (0 Bft)
19.08.2009 18:19 28,6 C 31,8 C 1,3 UV-I 1,0 C 43 % 34 % 29 % 1021,0 hPa 0,0 l/m 0,2 km/h (0 Bft) 0 min 0,0 km/h (0 Bft)
19.08.2009 18:24 28,5 C 31,7 C 1,2 UV-I 0,8 C 43 % 34 % 23 % 1021,0 hPa 0,0 l/m 1,2 km/h (1 Bft) 0 min 7,5 km/h (2 Bft)
19.08.2009 18:29 28,4 C 31,6 C 1,2 UV-I 0,6 C 44 % 35 % 17 % 1021,0 hPa 0,0 l/m 1,4 km/h (1 Bft) 0 min 3,6 km/h (1 Bft)
19.08.2009 18:34 28,4 C 31,5 C 1,1 UV-I 0,5 C 44 % 35 % 14 % 1021,0 hPa 0,0 l/m 1,2 km/h (1 Bft) 0 min 3,6 km/h (1 Bft)
19.08.2009 18:39 28,2 C 31,3 C 1,2 UV-I 0,3 C 44 % 35 % 9 % 1020,3 hPa 0,0 l/m 1,0 km/h (0 Bft) 0 min 0,0 km/h (0 Bft)
19.08.2009 18:44 28,2 C 31,3 C 1,0 UV-I 0,2 C 44 % 35 % 6 % 1020,3 hPa 0,0 l/m 0,7 km/h (0 Bft) 0 min 0,0 km/h (0 Bft)
19.08.2009 18:49 28,1 C 31,1 C 0,9 UV-I 0,1 C 44 % 35 % 3 % 1020,3 hPa 0,0 l/m 0,2 km/h (0 Bft) 0 min 0,0 km/h (0 Bft)
19.08.2009 18:54 28,0 C 31,0 C 0,7 UV-I 0,0 C 44 % 35 % 0 % 1020,3 hPa 0,0 l/m 0,2 km/h (0 Bft) 0 min 0,0 km/h (0 Bft)
19.08.2009 18:59 27,9 C 30,9 C 0,8 UV-I 0,0 C 44 % 36 % 0 % 1020,2 hPa 0,0 l/m 0,2 km/h (0 Bft) 0 min 0,0 km/h (0 Bft)
19.08.2009 19:04 27,8 C 30,8 C 0,8 UV-I 0,0 C 44 % 37 % 0 % 1020,2 hPa 0,0 l/m 0,0 km/h (0 Bft) 0 min 0,0 km/h (0 Bft)
19.08.2009 19:09 27,7 C 30,7 C 0,7 UV-I 0,0 C 45 % 39 % 0 % 1020,2 hPa 0,0 l/m 0,0 km/h (0 Bft) 0 min 0,0 km/h (0 Bft)
19.08.2009 19:14 27,7 C 30,4 C 0,8 UV-I 0,0 C 45 % 39 % 0 % 1020,2 hPa 0,0 l/m 0,0 km/h (0 Bft) 0 min 0,0 km/h (0 Bft)
19.08.2009 19:19 27,6 C 30,3 C 0,5 UV-I 0,0 C 45 % 39 % 0 % 1019,8 hPa 0,0 l/m 0,0 km/h (0 Bft) 0 min 0,0 km/h (0 Bft)
19.08.2009 19:24 27,5 C 30,3 C 0,5 UV-I 0,0 C 45 % 41 % 0 % 1019,8 hPa 0,0 l/m 0,0 km/h (0 Bft) 0 min 0,0 km/h (0 Bft)
19.08.2009 19:29 27,4 C 30,0 C 0,5 UV-I 0,0 C 46 % 42 % 0 % 1019,8 hPa 0,0 l/m 0,0 km/h (0 Bft) 0 min 0,0 km/h (0 Bft)
19.08.2009 19:34 27,4 C 29,8 C 0,4 UV-I 0,0 C 46 % 42 % 0 % 1019,8 hPa 0,0 l/m 0,0 km/h (0 Bft) 0 min 0,0 km/h (0 Bft)
19.08.2009 19:39 27,2 C 29,6 C 0,3 UV-I 0,0 C 46 % 43 % 0 % 1019,3 hPa 0,0 l/m 0,0 km/h (0 Bft) 0 min 0,0 km/h (0 Bft)
19.08.2009 19:44 27,2 C 29,5 C 0,2 UV-I 0,0 C 46 % 44 % 0 % 1019,3 hPa 0,0 l/m 0,0 km/h (0 Bft) 0 min 0,0 km/h (0 Bft)
19.08.2009 19:49 27,1 C 29,3 C 0,2 UV-I 0,0 C 47 % 45 % 0 % 1019,3 hPa 0,0 l/m 0,0 km/h (0 Bft) 0 min 0,0 km/h (0 Bft)
19.08.2009 19:54 27,1 C 29,2 C 0,2 UV-I 0,0 C 47 % 45 % 0 % 1019,3 hPa 0,0 l/m 0,0 km/h (0 Bft) 0 min 0,0 km/h (0 Bft)
19.08.2009 19:59 27,0 C 28,9 C 0,0 UV-I 0,0 C 47 % 46 % 0 % 1019,4 hPa 0,0 l/m 0,0 km/h (0 Bft) 0 min 0,0 km/h (0 Bft)
19.08.2009 20:04 27,0 C 28,8 C 0,1 UV-I 0,0 C 47 % 47 % 0 % 1019,4 hPa 0,0 l/m 0,0 km/h (0 Bft) 0 min 0,0 km/h (0 Bft)
19.08.2009 20:09 26,9 C 28,7 C 0,1 UV-I 0,0 C 47 % 48 % 0 % 1019,4 hPa 0,0 l/m 0,0 km/h (0 Bft) 0 min 0,0 km/h (0 Bft)
19.08.2009 20:14 26,9 C 28,4 C 0,1 UV-I 0,0 C 47 % 49 % 0 % 1019,4 hPa 0,0 l/m 0,0 km/h (0 Bft) 0 min 0,0 km/h (0 Bft)
19.08.2009 20:19 26,8 C 28,3 C 0,0 UV-I 0,0 C 48 % 51 % 0 % 1019,4 hPa 0,0 l/m 0,0 km/h (0 Bft) 0 min 0,0 km/h (0 Bft)
19.08.2009 20:24 26,8 C 28,0 C 0,0 UV-I 0,0 C 48 % 52 % 0 % 1019,4 hPa 0,0 l/m 0,0 km/h (0 Bft) 0 min 0,0 km/h (0 Bft)
19.08.2009 20:29 26,8 C 27,8 C 0,0 UV-I 0,0 C 48 % 54 % 0 % 1019,4 hPa 0,0 l/m 0,0 km/h (0 Bft) 0 min 0,0 km/h (0 Bft)
19.08.2009 20:34 26,7 C 27,6 C 0,0 UV-I 0,0 C 48 % 54 % 0 % 1019,4 hPa 0,0 l/m 0,0 km/h (0 Bft) 0 min 0,0 km/h (0 Bft)
19.08.2009 20:39 26,6 C 27,4 C 0,0 UV-I 0,0 C 49 % 54 % 0 % 1018,5 hPa 0,0 l/m 0,0 km/h (0 Bft) 0 min 0,0 km/h (0 Bft)
19.08.2009 20:44 26,6 C 27,2 C 0,0 UV-I 0,0 C 49 % 54 % 0 % 1018,5 hPa 0,0 l/m 0,0 km/h (0 Bft) 0 min 0,0 km/h (0 Bft)
19.08.2009 20:49 26,6 C 26,9 C 0,0 UV-I 0,0 C 49 % 55 % 0 % 1018,5 hPa 0,0 l/m 0,0 km/h (0 Bft) 0 min 0,0 km/h (0 Bft)
19.08.2009 20:54 26,5 C 26,8 C 0,0 UV-I 0,0 C 49 % 55 % 0 % 1018,5 hPa 0,0 l/m 0,0 km/h (0 Bft) 0 min 0,0 km/h (0 Bft)
19.08.2009 20:59 26,5 C 26,4 C 0,0 UV-I 0,0 C 49 % 56 % 0 % 1019,4 hPa 0,0 l/m 0,0 km/h (0 Bft) 0 min 0,0 km/h (0 Bft)
19.08.2009 21:04 26,5 C 26,3 C 0,0 UV-I 0,0 C 49 % 57 % 0 % 1019,4 hPa 0,0 l/m 0,0 km/h (0 Bft) 0 min 0,0 km/h (0 Bft)
19.08.2009 21:09 26,4 C 26,0 C 0,0 UV-I 0,0 C 50 % 58 % 0 % 1019,4 hPa 0,0 l/m 0,0 km/h (0 Bft) 0 min 0,0 km/h (0 Bft)
19.08.2009 21:14 26,4 C 25,8 C 0,0 UV-I 0,0 C 50 % 58 % 0 % 1019,4 hPa 0,0 l/m 0,0 km/h (0 Bft) 0 min 0,0 km/h (0 Bft)
19.08.2009 21:19 26,4 C 25,6 C 0,0 UV-I 0,0 C 50 % 59 % 0 % 1019,6 hPa 0,0 l/m 0,0 km/h (0 Bft) 0 min 0,0 km/h (0 Bft)
19.08.2009 21:24 26,4 C 25,5 C 0,0 UV-I 0,0 C 50 % 60 % 0 % 1019,6 hPa 0,0 l/m 0,0 km/h (0 Bft) 0 min 0,0 km/h (0 Bft)
19.08.2009 21:29 26,2 C 25,2 C 0,0 UV-I 0,0 C 51 % 60 % 0 % 1019,6 hPa 0,0 l/m 0,0 km/h (0 Bft) 0 min 0,0 km/h (0 Bft)
19.08.2009 21:34 26,3 C 25,1 C 0,0 UV-I 0,0 C 51 % 61 % 0 % 1019,6 hPa 0,0 l/m 0,0 km/h (0 Bft) 0 min 0,0 km/h (0 Bft)
19.08.2009 21:39 26,3 C 24,9 C 0,0 UV-I 0,0 C 51 % 62 % 0 % 1019,7 hPa 0,0 l/m 0,0 km/h (0 Bft) 0 min 0,0 km/h (0 Bft)
19.08.2009 21:44 26,2 C 24,7 C 0,0 UV-I 0,0 C 51 % 62 % 0 % 1019,7 hPa 0,0 l/m 0,0 km/h (0 Bft) 0 min 0,0 km/h (0 Bft)
19.08.2009 21:49 26,2 C 24,5 C 0,0 UV-I 0,0 C 51 % 63 % 0 % 1019,7 hPa 0,0 l/m 0,0 km/h (0 Bft) 0 min 0,0 km/h (0 Bft)
19.08.2009 21:54 26,2 C 24,2 C 0,0 UV-I 0,0 C 52 % 64 % 0 % 1019,7 hPa 0,0 l/m 0,0 km/h (0 Bft) 0 min 0,0 km/h (0 Bft)
19.08.2009 21:59 26,1 C 24,0 C 0,0 UV-I 0,0 C 52 % 64 % 0 % 1019,5 hPa 0,0 l/m 0,0 km/h (0 Bft) 0 min 0,0 km/h (0 Bft)
19.08.2009 22:04 26,1 C 23,9 C 0,0 UV-I 0,0 C 52 % 64 % 0 % 1019,5 hPa 0,0 l/m 0,0 km/h (0 Bft) 0 min 0,0 km/h (0 Bft)
19.08.2009 22:09 26,1 C 23,7 C 0,0 UV-I 0,0 C 52 % 64 % 0 % 1019,5 hPa 0,0 l/m 0,0 km/h (0 Bft) 0 min 0,0 km/h (0 Bft)
19.08.2009 22:14 26,1 C 23,7 C 0,0 UV-I 0,0 C 52 % 65 % 0 % 1019,5 hPa 0,0 l/m 0,0 km/h (0 Bft) 0 min 0,0 km/h (0 Bft)
19.08.2009 22:19 26,0 C 23,5 C 0,0 UV-I 0,0 C 53 % 65 % 0 % 1019,7 hPa 0,0 l/m 0,0 km/h (0 Bft) 0 min 0,0 km/h (0 Bft)
19.08.2009 22:24 26,0 C 23,3 C 0,0 UV-I 0,0 C 53 % 66 % 0 % 1019,7 hPa 0,0 l/m 0,0 km/h (0 Bft) 0 min 0,0 km/h (0 Bft)
19.08.2009 22:29 26,0 C 23,1 C 0,0 UV-I 0,0 C 53 % 66 % 0 % 1019,7 hPa 0,0 l/m 0,0 km/h (0 Bft) 0 min 0,0 km/h (0 Bft)
19.08.2009 22:34 26,0 C 23,1 C 0,0 UV-I 0,0 C 53 % 66 % 0 % 1019,7 hPa 0,0 l/m 0,0 km/h (0 Bft) 0 min 0,0 km/h (0 Bft)
19.08.2009 22:39 25,9 C 22,8 C 0,0 UV-I 0,0 C 53 % 67 % 0 % 1019,5 hPa 0,0 l/m 0,0 km/h (0 Bft) 0 min 0,0 km/h (0 Bft)
19.08.2009 22:44 25,9 C 22,7 C 0,0 UV-I 0,0 C 53 % 67 % 0 % 1019,5 hPa 0,0 l/m 0,0 km/h (0 Bft) 0 min 0,0 km/h (0 Bft)
19.08.2009 22:49 25,8 C 22,6 C 0,0 UV-I 0,0 C 54 % 68 % 0 % 1019,5 hPa 0,0 l/m 0,0 km/h (0 Bft) 0 min 0,0 km/h (0 Bft)
19.08.2009 22:54 25,9 C 22,5 C 0,0 UV-I 0,0 C 54 % 68 % 0 % 1019,5 hPa 0,0 l/m 0,0 km/h (0 Bft) 0 min 0,0 km/h (0 Bft)
19.08.2009 22:59 25,8 C 22,2 C 0,0 UV-I 0,0 C 54 % 69 % 0 % 1019,6 hPa 0,0 l/m 0,0 km/h (0 Bft) 0 min 0,0 km/h (0 Bft)
19.08.2009 23:04 25,8 C 22,1 C 0,0 UV-I 0,0 C 54 % 69 % 0 % 1019,6 hPa 0,0 l/m 0,0 km/h (0 Bft) 0 min 0,0 km/h (0 Bft)
19.08.2009 23:09 25,8 C 22,0 C 0,0 UV-I 0,0 C 54 % 70 % 0 % 1019,6 hPa 0,0 l/m 0,0 km/h (0 Bft) 0 min 0,0 km/h (0 Bft)
19.08.2009 23:14 25,8 C 21,8 C 0,0 UV-I 0,0 C 54 % 70 % 0 % 1019,6 hPa 0,0 l/m 0,0 km/h (0 Bft) 0 min 0,0 km/h (0 Bft)
19.08.2009 23:19 25,7 C 21,7 C 0,0 UV-I 0,0 C 55 % 71 % 0 % 1019,4 hPa 0,0 l/m 0,0 km/h (0 Bft) 0 min 0,0 km/h (0 Bft)
19.08.2009 23:24 25,7 C 21,6 C 0,0 UV-I 0,0 C 55 % 71 % 0 % 1019,4 hPa 0,0 l/m 0,0 km/h (0 Bft) 0 min 0,0 km/h (0 Bft)
19.08.2009 23:29 25,7 C 21,4 C 0,0 UV-I 0,0 C 55 % 72 % 0 % 1019,4 hPa 0,0 l/m 0,0 km/h (0 Bft) 0 min 0,0 km/h (0 Bft)
19.08.2009 23:34 25,6 C 21,3 C 0,0 UV-I 0,0 C 55 % 72 % 0 % 1019,4 hPa 0,0 l/m 0,0 km/h (0 Bft) 0 min 0,0 km/h (0 Bft)
19.08.2009 23:39 25,6 C 21,3 C 0,0 UV-I 0,0 C 55 % 72 % 0 % 1019,6 hPa 0,0 l/m 0,0 km/h (0 Bft) 0 min 0,0 km/h (0 Bft)
19.08.2009 23:44 25,6 C 21,1 C 0,0 UV-I 0,0 C 55 % 72 % 0 % 1019,6 hPa 0,0 l/m 0,0 km/h (0 Bft) 0 min 0,0 km/h (0 Bft)
19.08.2009 23:49 25,6 C 21,1 C 0,0 UV-I 0,0 C 55 % 72 % 0 % 1019,6 hPa 0,0 l/m 0,2 km/h (0 Bft) 0 min 0,0 km/h (0 Bft)
19.08.2009 23:54 25,6 C 21,1 C 0,0 UV-I 0,0 C 55 % 72 % 0 % 1019,6 hPa 0,0 l/m 0,2 km/h (0 Bft) 0 min 0,0 km/h (0 Bft)
19.08.2009 23:59 25,5 C 21,0 C 0,0 UV-I 0,0 C 55 % 71 % 0 % 1019,1 hPa 0,0 l/m 0,0 km/h (0 Bft) 0 min 0,0 km/h (0 Bft)
_ Min-Zeit 06:20 07:12 00:04 00:04 16:54 16:40 00:04 20:39 - 00:04 - 00:04
Minimum _ 22,8 C 14,6 C 0,0 UV-I 0,0 C 41 % 31 % 0 % 1018,5 hPa - 0,0 km/h (0 Bft) - 0,0 km/h (0 Bft)
_ Max-Zeit 17:20 15:44 10:42 10:12 09:10 07:24 09:54 15:16 00:04 11:20 09:54 14:22
Maximum _ 30,0 C 34,5 C 13,1 UV-I 7,4 C 55 % 83 % 100 % 1024,7 hPa 0,0 l/m 6,3 km/h
O-NO (2 Bft)
2 min 22,1 km/h
W-SW (4 Bft)
Durchschnitt _ 25,0 C 23,3 C 2,9 UV-I 1,5 C 51 % 61 % 35 % 1021,0 hPa #0,0 l/m 1,3 km/h (1 Bft) #6:04 h 2,9 km/h (1 Bft)
© 2012 W. Hausmann